FW4770 Weather Reports


time (UTC)temp
C
wind
direction
speed
KPH
gust
KPH
rain 1hr
cm
rain 24hr
cm
rain mn
cm
humidity
%
barometer
mb
20260505125041 4 345 12.9 24.1 0.00 0.00 0.00 58 1010.1
20260505124907 4 15 11.3 19.3 0.00 0.00 0.00 58 1010.0
20260505124812 4 360 12.9 20.9 0.00 0.00 0.00 58 1010.1
20260505124717 4 13 11.3 22.5 0.00 0.00 0.00 59 1010.1
20260505124622 3 342 9.7 22.5 0.00 0.00 0.00 59 1010.0
20260505124507 3 5 8.0 22.5 0.00 0.00 0.00 59 1010.0
20260505124411 3 360 9.7 22.5 0.00 0.00 0.00 59 1010.1
20260505124335 3 32 8.0 22.5 0.00 0.00 0.00 59 1010.0
20260505124223 3 5 9.7 22.5 0.00 0.00 0.00 59 1010.0
20260505124106 3 15 12.9 22.5 0.00 0.00 0.00 58 1010.1
20260505124010 3 360 16.1 22.5 0.00 0.00 0.00 58 1010.1
20260505123913 3 23 14.5 22.5 0.00 0.00 0.00 59 1010.0
20260505123838 3 12 11.3 20.9 0.00 0.00 0.00 59 1010.1
20260505123741 3 52 11.3 20.9 0.00 0.00 0.00 59 1010.0
20260505123609 3 36 9.7 20.9 0.00 0.00 0.00 60 1009.9
20260505123513 3 43 9.7 24.1 0.00 0.00 0.00 60 1009.9
20260505123438 3 351 12.9 24.1 0.00 0.00 0.00 60 1009.9
20260505123340 3 15 12.9 24.1 0.00 0.00 0.00 60 1009.9
20260505123223 3 38 12.9 24.1 0.00 0.00 0.00 60 1009.9
20260505123107 3 22 11.3 24.1 0.00 0.00 0.00 61 1009.8
20260505123012 3 360 9.7 24.1 0.00 0.00 0.00 61 1009.9
20260505122937 3 17 9.7 24.1 0.00 0.00 0.00 61 1009.9
20260505122844 3 355 12.9 24.1 0.00 0.00 0.00 61 1009.8
20260505122727 3 5 12.9 24.1 0.00 0.00 0.00 61 1009.8
20260505122630 3 320 12.9 20.9 0.00 0.00 0.00 61 1009.8
20260505122508 3 355 9.7 20.9 0.00 0.00 0.00 62 1009.8
20260505122413 3 345 9.7 17.7 0.00 0.00 0.00 63 1009.8
20260505122333 3 21 9.7 17.7 0.00 0.00 0.00 63 1009.8
20260505122208 3 17 11.3 17.7 0.00 0.00 0.00 63 1009.7
20260505122112 3 28 9.7 17.7 0.00 0.00 0.00 63 1009.8
20260505122033 3 20 9.7 17.7 0.00 0.00 0.00 63 1009.8
20260505121953 3 16 9.7 17.7 0.00 0.00 0.00 63 1009.7
20260505121805 3 9 11.3 17.7 0.00 0.00 0.00 63 1009.8
20260505121710 3 355 11.3 17.7 0.00 0.00 0.00 63 1009.7
20260505121614 3 44 11.3 17.7 0.00 0.00 0.00 63 1009.7
20260505121519 3 46 11.3 17.7 0.00 0.00 0.00 64 1009.7
20260505121407 3 360 12.9 17.7 0.00 0.00 0.00 63 1009.7
20260505121310 3 24 14.5 17.7 0.00 0.00 0.00 63 1009.7
20260505121215 3 355 11.3 16.1 0.00 0.00 0.00 64 1009.7
20260505121115 3 355 11.3 16.1 0.00 0.00 0.00 64 1009.6
20260505121016 3 5 12.9 16.1 0.00 0.00 0.00 64 1009.7
20260505120918 3 360 9.7 16.1 0.00 0.00 0.00 65 1009.6
20260505120822 3 350 8.0 16.1 0.00 0.00 0.00 65 1009.6
20260505120722 3 13 8.0 16.1 0.00 0.00 0.00 65 1009.7
20260505120624 3 334 8.0 16.1 0.00 0.00 0.00 65 1009.6
20260505120525 3 343 9.7 16.1 0.00 0.00 0.00 65 1009.5
20260505120407 3 328 9.7 17.7 0.00 0.00 0.00 65 1009.6
20260505120307 3 355 11.3 17.7 0.00 0.00 0.00 66 1009.5
20260505120213 3 355 9.7 17.7 0.00 0.00 0.00 66 1009.6
20260505120114 3 26 8.0 17.7 0.00 0.00 0.00 66 1009.6
20260505120016 3 355 8.0 17.7 0.00 0.00 0.00 66 1009.5
20260505115937 2 339 9.7 17.7 0.00 0.00 0.00 66 1009.5
20260505115838 2 309 9.7 17.7 0.00 0.00 0.00 66 1009.4
20260505115718 2 12 9.7 17.7 0.00 0.00 0.00 66 1009.5
20260505115620 2 20 9.7 17.7 0.00 0.00 0.00 67 1009.4
20260505115526 2 336 9.7 17.7 0.00 0.00 0.00 67 1009.3
20260505115407 2 349 8.0 16.1 0.00 0.00 0.00 67 1009.4
20260505115309 2 344 9.7 17.7 0.00 0.00 0.00 67 1009.4
20260505115230 2 355 11.3 19.3 0.00 0.00 0.00 67 1009.4
20260505115111 2 360 11.3 19.3 0.00 0.00 0.00 67 1009.4
20260505115011 2 350 9.7 19.3 0.00 0.00 0.00 68 1009.4
20260505114933 2 360 8.0 19.3 0.00 0.00 0.00 68 1009.2
20260505114817 2 30 6.4 19.3 0.00 0.00 0.00 68 1009.3
20260505114719 2 325 8.0 19.3 0.00 0.00 0.00 68 1009.3
20260505114620 2 5 12.9 19.3 0.00 0.00 0.00 68 1009.3
20260505114522 2 5 12.9 19.3 0.00 0.00 0.00 68 1009.3
20260505114424 2 28 12.9 19.3 0.00 0.00 0.00 68 1009.2
20260505114325 2 23 11.3 19.3 0.00 0.00 0.00 68 1009.2
20260505114210 2 348 11.3 16.1 0.00 0.00 0.00 68 1009.3
20260505114111 2 337 11.3 16.1 0.00 0.00 0.00 69 1009.2
20260505114011 2 11 11.3 19.3 0.00 0.00 0.00 69 1009.3
20260505113913 2 5 11.3 19.3 0.00 0.00 0.00 69 1009.2
20260505113815 2 348 11.3 19.3 0.00 0.00 0.00 69 1009.2
20260505113716 2 303 11.3 19.3 0.00 0.00 0.00 69 1009.2
20260505113618 2 355 9.7 19.3 0.00 0.00 0.00 69 1009.2
20260505113523 2 344 8.0 19.3 0.00 0.00 0.00 70 1009.1
20260505113443 2 360 11.3 20.9 0.00 0.00 0.00 70 1009.2
20260505113324 2 355 11.3 20.9 0.00 0.00 0.00 70 1009.1
20260505113224 2 346 9.7 20.9 0.00 0.00 0.00 70 1009.1
20260505113145 2 316 8.0 20.9 0.00 0.00 0.00 70 1009.2
20260505113026 2 5 11.3 20.9 0.00 0.00 0.00 70 1009.1
20260505112927 2 10 12.9 20.9 0.00 0.00 0.00 70 1009.1
20260505112832 2 339 14.5 20.9 0.00 0.00 0.00 71 1009.1
20260505112711 2 360 12.9 20.9 0.00 0.00 0.00 71 1009.1
20260505112633 2 360 11.3 20.9 0.00 0.00 0.00 71 1009.0
20260505112534 2 327 9.7 19.3 0.00 0.00 0.00 71 1009.0
20260505112407 2 346 12.9 19.3 0.00 0.00 0.00 72 1009.0
20260505112329 2 341 14.5 19.3 0.00 0.00 0.00 72 1008.9
20260505112209 2 346 9.7 19.3 0.00 0.00 0.00 72 1008.9
20260505112113 2 341 6.4 14.5 0.00 0.00 0.00 72 1008.9
20260505112019 2 331 9.7 14.5 0.00 0.00 0.00 72 1008.9
20260505111921 2 323 9.7 14.5 0.00 0.00 0.00 72 1008.9
20260505111841 2 346 6.4 14.5 0.00 0.00 0.00 72 1008.9
20260505111721 2 360 6.4 14.5 0.00 0.00 0.00 72 1008.8
20260505111622 2 5 8.0 14.5 0.00 0.00 0.00 72 1008.9
20260505111523 2 5 9.7 14.5 0.00 0.00 0.00 72 1008.8
20260505111423 2 360 9.7 14.5 0.00 0.00 0.00 72 1008.8
20260505111308 2 349 8.0 12.9 0.00 0.00 0.00 72 1008.8
20260505111229 2 360 8.0 12.9 0.00 0.00 0.00 73 1008.8
20260505111106 2 355 8.0 12.9 0.00 0.00 0.00 73 1008.8
20260505111010 2 341 6.4 16.1 0.00 0.00 0.00 73 1008.8
20260505110913 2 348 6.4 16.1 0.00 0.00 0.00 73 1008.8
20260505110817 2 347 6.4 16.1 0.00 0.00 0.00 73 1008.9
20260505110725 2 5 6.4 16.1 0.00 0.00 0.00 73 1008.7
20260505110650 2 330 6.4 16.1 0.00 0.00 0.00 73 1008.9
20260505110505 2 326 6.4 16.1 0.00 0.00 0.00 73 1008.8
20260505110430 2 5 6.4 16.1 0.00 0.00 0.00 73 1008.9
20260505110306 2 340 8.0 16.1 0.00 0.00 0.00 73 1008.9
20260505110231 2 344 8.0 16.1 0.00 0.00 0.00 72 1008.8
20260505110113 2 5 8.0 16.1 0.00 0.00 0.00 72 1008.8
20260505102204 2 5 6.4 14.5 0.00 0.00 0.00 71 1008.7
20260505102107 2 337 6.4 14.5 0.00 0.00 0.00 72 1008.6
20260505102015 2 30 8.0 14.5 0.00 0.00 0.00 71 1008.6
20260505101938 2 349 6.4 14.5 0.00 0.00 0.00 71 1008.5
20260505101823 2 350 6.4 14.5 0.00 0.00 0.00 71 1008.6
20260505101707 2 355 6.4 14.5 0.00 0.00 0.00 71 1008.6
20260505101610 2 360 6.4 14.5 0.00 0.00 0.00 71 1008.6
20260505101515 2 346 8.0 14.5 0.00 0.00 0.00 71 1008.6
20260505101420 2 29 8.0 14.5 0.00 0.00 0.00 71 1008.5
20260505101307 2 314 8.0 14.5 0.00 0.00 0.00 71 1008.5
20260505101212 2 347 8.0 14.5 0.00 0.00 0.00 71 1008.6
20260505101117 2 331 9.7 14.5 0.00 0.00 0.00 71 1008.5
20260505101041 2 331 9.7 14.5 0.00 0.00 0.00 71 1008.6
20260505100925 2 355 6.4 14.5 0.00 0.00 0.00 71 1008.6
20260505100808 2 316 6.4 12.9 0.00 0.00 0.00 71 1008.6
20260505100717 2 348 6.4 12.9 0.00 0.00 0.00 70 1008.6
20260505100621 2 339 6.4 12.9 0.00 0.00 0.00 70 1008.5
20260505100505 2 348 6.4 12.9 0.00 0.00 0.00 70 1008.6
20260505100428 2 5 6.4 12.9 0.00 0.00 0.00 70 1008.6
20260505100311 2 339 8.0 14.5 0.00 0.00 0.00 70 1008.6
20260505100236 2 355 8.0 14.5 0.00 0.00 0.00 70 1008.6
20260505100120 2 336 6.4 14.5 0.00 0.00 0.00 70 1008.6
20260505100027 2 16 6.4 14.5 0.00 0.00 0.00 70 1008.6
20260505095904 2 350 8.0 14.5 0.00 0.00 0.00 70 1008.6
20260505095809 2 343 6.4 14.5 0.00 0.00 0.00 70 1008.7
20260505095714 2 336 6.4 14.5 0.00 0.00 0.00 70 1008.6
20260505095617 2 317 8.0 14.5 0.00 0.00 0.00 70 1008.7
20260505095522 2 341 8.0 14.5 0.00 0.00 0.00 70 1008.6
20260505095430 3 355 6.4 12.9 0.00 0.00 0.00 70 1008.7
20260505095307 3 350 6.4 12.9 0.00 0.00 0.00 70 1008.6
20260505095210 3 360 6.4 14.5 0.00 0.00 0.00 70 1008.6
20260505095114 3 333 6.4 14.5 0.00 0.00 0.00 70 1008.6
20260505095018 3 311 6.4 14.5 0.00 0.00 0.00 70 1008.7
20260505094942 3 339 6.4 14.5 0.00 0.00 0.00 70 1008.6
20260505094810 3 339 4.8 14.5 0.00 0.00 0.00 70 1008.7
20260505094715 3 337 4.8 17.7 0.00 0.00 0.00 70 1008.6
20260505094639 3 309 6.4 17.7 0.00 0.00 0.00 69 1008.7
20260505094522 3 346 8.0 17.7 0.00 0.00 0.00 69 1008.6
20260505094407 3 355 8.0 17.7 0.00 0.00 0.00 70 1008.6
20260505094311 3 351 6.4 17.7 0.00 0.00 0.00 70 1008.6
20260505094214 3 349 6.4 17.7 0.00 0.00 0.00 70 1008.6
20260505094142 3 360 8.0 17.7 0.00 0.00 0.00 69 1008.6
20260505094025 3 342 11.3 17.7 0.00 0.00 0.00 69 1008.6
20260505093949 3 329 9.7 17.7 0.00 0.00 0.00 69 1008.6
20260505093805 3 340 8.0 17.7 0.00 0.00 0.00 69 1008.5
20260505093710 3 335 8.0 17.7 0.00 0.00 0.00 69 1008.5
20260505093634 3 327 8.0 17.7 0.00 0.00 0.00 69 1008.5
20260505093518 3 348 8.0 17.7 0.00 0.00 0.00 69 1008.5
20260505093406 3 339 12.9 17.7 0.00 0.00 0.00 69 1008.4
20260505093311 3 333 11.3 17.7 0.00 0.00 0.00 69 1008.5
20260505093215 3 326 8.0 17.7 0.00 0.00 0.00 69 1008.5
20260505093120 3 333 6.4 17.7 0.00 0.00 0.00 69 1008.4
20260505093005 3 350 6.4 17.7 0.00 0.00 0.00 69 1008.5
20260505092909 3 327 8.0 17.7 0.00 0.00 0.00 68 1008.4
20260505092816 3 350 8.0 17.7 0.00 0.00 0.00 68 1008.4
20260505092740 3 327 9.7 17.7 0.00 0.00 0.00 68 1008.4
20260505092624 3 355 9.7 16.1 0.00 0.00 0.00 68 1008.5
20260505092529 3 336 11.3 16.1 0.00 0.00 0.00 68 1008.4
20260505092413 3 321 8.0 16.1 0.00 0.00 0.00 69 1008.4
20260505092318 3 329 8.0 16.1 0.00 0.00 0.00 69 1008.4
20260505092243 3 346 8.0 16.1 0.00 0.00 0.00 69 1008.4
20260505092130 3 343 8.0 14.5 0.00 0.00 0.00 68 1008.4
20260505092007 3 333 9.7 14.5 0.00 0.00 0.00 68 1008.4
20260505091911 3 310 9.7 17.7 0.00 0.00 0.00 69 1008.4
20260505091815 3 342 8.0 17.7 0.00 0.00 0.00 68 1008.4
20260505091719 3 350 8.0 17.7 0.00 0.00 0.00 68 1008.3
20260505091643 3 348 4.8 20.9 0.00 0.00 0.00 68 1008.4
20260505091511 3 13 6.4 20.9 0.00 0.00 0.00 68 1008.3
20260505091416 3 319 6.4 20.9 0.00 0.00 0.00 68 1008.3
20260505091320 3 291 6.4 20.9 0.00 0.00 0.00 67 1008.3
20260505091224 3 339 9.7 20.9 0.00 0.00 0.00 67 1008.3
20260505091108 3 325 9.7 20.9 0.00 0.00 0.00 67 1008.3
20260505091013 3 342 8.0 20.9 0.00 0.00 0.00 67 1008.3
20260505090922 3 355 11.3 20.9 0.00 0.00 0.00 67 1008.2
20260505090826 3 355 14.5 20.9 0.00 0.00 0.00 67 1008.2
20260505090729 3 355 12.9 20.9 0.00 0.00 0.00 67 1008.1
20260505090605 3 355 12.9 22.5 0.00 0.00 0.00 67 1008.1
20260505090509 3 9 12.9 22.5 0.00 0.00 0.00 67 1008.2
20260505090414 3 350 9.7 22.5 0.00 0.00 0.00 67 1008.1
20260505090319 3 319 11.3 22.5 0.00 0.00 0.00 67 1008.2
20260505090227 3 341 9.7 22.5 0.00 0.00 0.00 67 1008.1
20260505090130 3 334 6.4 22.5 0.00 0.00 0.00 67 1008.2
20260505090007 3 22 8.0 22.5 0.00 0.00 0.00 67 1008.1
20260505085912 3 348 12.9 22.5 0.00 0.00 0.00 66 1008.1
20260505085816 3 355 12.9 22.5 0.00 0.00 0.00 66 1008.1
20260505085720 3 323 11.3 22.5 0.00 0.00 0.00 66 1008.1
20260505085628 3 360 14.5 25.7 0.00 0.00 0.00 66 1008.2
20260505085506 3 19 12.9 25.7 0.00 0.00 0.00 66 1008.2
20260505085430 3 360 12.9 25.7 0.00 0.00 0.00 66 1008.2
20260505085308 3 338 16.1 25.7 0.00 0.00 0.00 66 1008.1
20260505085212 3 345 14.5 25.7 0.00 0.00 0.00 66 1008.2
20260505085137 3 345 9.7 25.7 0.00 0.00 0.00 67 1008.2
20260505085020 3 327 12.9 25.7 0.00 0.00 0.00 67 1008.2
20260505084928 3 345 16.1 25.7 0.00 0.00 0.00 66 1008.2
20260505084830 3 5 16.1 25.7 0.00 0.00 0.00 66 1008.1
20260505084708 3 355 14.5 24.1 0.00 0.00 0.00 66 1008.1
20260505084631 3 334 12.9 24.1 0.00 0.00 0.00 66 1008.1
20260505084514 3 43 9.7 24.1 0.00 0.00 0.00 66 1008.1
20260505084416 3 327 12.9 24.1 0.00 0.00 0.00 66 1008.0
20260505084319 3 21 14.5 24.1 0.00 0.00 0.00 66 1008.1
20260505084206 3 338 16.1 22.5 0.00 0.00 0.00 66 1008.0
20260505084130 3 344 17.7 22.5 0.00 0.00 0.00 66 1008.0
20260505084031 3 342 17.7 22.5 0.00 0.00 0.00 66 1008.0
20260505083913 3 319 16.1 22.5 0.00 0.00 0.00 66 1007.9
20260505083816 3 350 14.5 22.5 0.00 0.00 0.00 66 1007.9
20260505083720 3 313 14.5 22.5 0.00 0.00 0.00 66 1007.9
20260505083606 3 343 12.9 22.5 0.00 0.00 0.00 66 1007.9
20260505083529 3 34 9.7 20.9 0.00 0.00 0.00 66 1007.9
20260505083406 3 341 8.0 22.5 0.00 0.00 0.00 66 1007.8
20260505083309 3 355 8.0 22.5 0.00 0.00 0.00 66 1007.7
20260505083211 3 355 8.0 22.5 0.00 0.00 0.00 66 1007.8
20260505083114 3 297 11.3 22.5 0.00 0.00 0.00 66 1007.8
20260505083017 4 335 12.9 22.5 0.00 0.00 0.00 66 1007.7
20260505082904 3 11 11.3 22.5 0.00 0.00 0.00 66 1007.7
20260505082807 3 311 12.9 22.5 0.00 0.00 0.00 66 1007.7
20260505082710 4 332 12.9 22.5 0.00 0.00 0.00 66 1007.6
20260505082615 4 35 11.3 25.7 0.00 0.00 0.00 66 1007.6
20260505082517 4 349 9.7 25.7 0.00 0.00 0.00 66 1007.6
20260505082420 4 350 12.9 25.7 0.00 0.00 0.00 66 1007.6
20260505082327 4 325 16.1 25.7 0.00 0.00 0.00 66 1007.6
20260505082229 4 340 16.1 25.7 0.00 0.00 0.00 65 1007.5
20260505082106 4 11 14.5 25.7 0.00 0.00 0.00 65 1007.5
20260505082008 4 355 14.5 25.7 0.00 0.00 0.00 65 1007.5
20260505081911 4 12 14.5 25.7 0.00 0.00 0.00 65 1007.5
20260505081814 4 355 16.1 25.7 0.00 0.00 0.00 65 1007.5
20260505081721 4 339 14.5 25.7 0.00 0.00 0.00 65 1007.5
20260505081625 4 350 9.7 17.7 0.00 0.00 0.00 65 1007.5
20260505081529 4 323 8.0 20.9 0.00 0.00 0.00 65 1007.5
20260505081430 4 360 11.3 20.9 0.00 0.00 0.00 65 1007.5
20260505081306 4 338 11.3 20.9 0.00 0.00 0.00 65 1007.5
20260505081229 4 355 9.7 20.9 0.00 0.00 0.00 65 1007.5
20260505081105 4 317 9.7 20.9 0.00 0.00 0.00 65 1007.6
20260505081012 4 328 11.3 20.9 0.00 0.00 0.00 64 1007.5
20260505080916 4 323 11.3 20.9 0.00 0.00 0.00 65 1007.5
20260505080820 4 333 9.7 20.9 0.00 0.00 0.00 64 1007.5
20260505080705 4 345 9.7 20.9 0.00 0.00 0.00 64 1007.5
20260505080629 4 5 9.7 20.9 0.00 0.00 0.00 64 1007.5
20260505080505 4 329 11.3 22.5 0.00 0.00 0.00 64 1007.5
20260505080413 4 319 9.7 22.5 0.00 0.00 0.00 64 1007.4
20260505080317 4 26 6.4 22.5 0.00 0.00 0.00 64 1007.4
20260505080241 4 5 8.0 22.5 0.00 0.00 0.00 64 1007.4
20260505080105 4 355 9.7 22.5 0.00 0.00 0.00 64 1007.5
20260505080009 4 355 11.3 22.5 0.00 0.00 0.00 64 1007.5
20260505075914 4 331 12.9 22.5 0.00 0.00 0.00 64 1007.4
20260505075819 4 355 11.3 22.5 0.00 0.00 0.00 63 1007.4
20260505075727 4 315 8.0 22.5 0.00 0.00 0.00 64 1007.5
20260505075604 4 306 11.3 17.7 0.00 0.00 0.00 63 1007.5
20260505075530 4 340 12.9 17.7 0.00 0.00 0.00 63 1007.5
20260505075405 4 346 11.3 17.7 0.00 0.00 0.00 63 1007.4
20260505075308 4 333 11.3 17.7 0.00 0.00 0.00 63 1007.4
20260505075212 4 322 12.9 17.7 0.00 0.00 0.00 63 1007.4
20260505075141 4 355 12.9 17.7 0.00 0.00 0.00 63 1007.5
20260505075004 4 321 9.7 16.1 0.00 0.00 0.00 63 1007.5
20260505074908 4 313 9.7 16.1 0.00 0.00 0.00 63 1007.5
20260505074812 4 355 8.0 16.1 0.00 0.00 0.00 63 1007.5
20260505074714 4 331 8.0 16.1 0.00 0.00 0.00 63 1007.5
20260505074637 4 313 8.0 16.1 0.00 0.00 0.00 63 1007.5
20260505074504 4 323 9.7 16.1 0.00 0.00 0.00 63 1007.5
20260505074428 4 335 9.7 16.1 0.00 0.00 0.00 63 1007.5
20260505074305 4 335 8.0 14.5 0.00 0.00 0.00 63 1007.4
20260505074208 4 347 6.4 14.5 0.00 0.00 0.00 63 1007.4
20260505074111 4 324 8.0 14.5 0.00 0.00 0.00 63 1007.4
20260505074015 4 350 8.0 14.5 0.00 0.00 0.00 63 1007.4
20260505073919 5 336 8.0 14.5 0.00 0.00 0.00 63 1007.4
20260505073807 5 324 6.4 14.5 0.00 0.00 0.00 62 1007.3
20260505073711 5 309 6.4 14.5 0.00 0.00 0.00 62 1007.3
20260505073615 5 331 6.4 16.1 0.00 0.00 0.00 62 1007.3
20260505073520 5 346 8.0 16.1 0.00 0.00 0.00 62 1007.3
20260505073424 5 335 8.0 16.1 0.00 0.00 0.00 62 1007.3
20260505073313 5 333 6.4 16.1 0.00 0.00 0.00 63 1007.3
20260505073217 5 5 6.4 16.1 0.00 0.00 0.00 62 1007.4
20260505073121 5 331 8.0 16.1 0.00 0.00 0.00 61 1007.3
20260505073026 5 355 8.0 16.1 0.00 0.00 0.00 61 1007.3
20260505072929 5 314 8.0 16.1 0.00 0.00 0.00 62 1007.3
20260505072805 5 315 9.7 16.1 0.00 0.00 0.00 62 1007.4
20260505072710 5 315 9.7 16.1 0.00 0.00 0.00 61 1007.3
20260505072619 5 360 8.0 16.1 0.00 0.00 0.00 61 1007.4
20260505072543 5 350 6.4 16.1 0.00 0.00 0.00 62 1007.3
20260505072406 5 311 8.0 16.1 0.00 0.00 0.00 61 1007.3
20260505072310 5 348 8.0 16.1 0.00 0.00 0.00 62 1007.3
20260505072213 5 328 8.0 16.1 0.00 0.00 0.00 61 1007.3
20260505072116 5 5 8.0 17.7 0.00 0.00 0.00 61 1007.3
20260505072041 5 329 6.4 17.7 0.00 0.00 0.00 61 1007.3
20260505071907 5 346 6.4 17.7 0.00 0.00 0.00 61 1007.4
20260505071810 5 336 8.0 19.3 0.00 0.00 0.00 61 1007.2
20260505071715 5 345 8.0 19.3 0.00 0.00 0.00 60 1007.2
20260505071619 5 16 8.0 19.3 0.00 0.00 0.00 61 1007.3
20260505071543 5 24 9.7 20.9 0.00 0.00 0.00 61 1007.3
20260505071407 5 321 11.3 20.9 0.00 0.00 0.00 60 1007.3
20260505071315 5 346 11.3 20.9 0.00 0.00 0.00 60 1007.3
20260505071219 5 38 9.7 20.9 0.00 0.00 0.00 60 1007.3
20260505071124 5 337 11.3 20.9 0.00 0.00 0.00 61 1007.3
20260505071009 5 329 9.7 20.9 0.00 0.00 0.00 60 1007.3
20260505070913 5 332 11.3 20.9 0.00 0.00 0.00 60 1007.3
20260505070817 5 330 12.9 20.9 0.00 0.00 0.00 60 1007.3
20260505070706 5 348 11.3 20.9 0.00 0.00 0.00 60 1007.3
20260505070610 5 338 9.7 20.9 0.00 0.00 0.00 60 1007.4
20260505070514 5 355 11.3 20.9 0.00 0.00 0.00 61 1007.5
20260505070418 5 347 11.3 20.9 0.00 0.00 0.00 60 1007.4
20260505070322 5 306 9.7 22.5 0.00 0.00 0.00 60 1007.4
20260505070209 5 288 8.0 22.5 0.00 0.00 0.00 60 1007.4
20260505070113 5 5 8.0 22.5 0.00 0.00 0.00 60 1007.4
20260505070017 5 323 9.7 22.5 0.00 0.00 0.00 60 1007.4
20260505065940 5 340 12.9 22.5 0.00 0.00 0.00 60 1007.4
20260505065824 5 324 14.5 22.5 0.00 0.00 0.00 60 1007.4
20260505065708 5 345 9.7 22.5 0.00 0.00 0.00 60 1007.4
20260505065612 5 316 11.3 22.5 0.00 0.00 0.00 60 1007.3
20260505065521 5 340 9.7 22.5 0.00 0.00 0.00 60 1007.4
20260505065426 5 340 8.0 20.9 0.00 0.00 0.00 60 1007.3
20260505065329 5 328 8.0 20.9 0.00 0.00 0.00 60 1007.3
20260505065205 5 333 9.7 20.9 0.00 0.00 0.00 60 1007.3
20260505065109 5 315 12.9 25.7 0.00 0.00 0.00 60 1007.2
20260505065013 5 334 12.9 25.7 0.00 0.00 0.00 59 1007.3
20260505064922 5 325 11.3 25.7 0.00 0.00 0.00 60 1007.2
20260505064826 5 17 12.9 25.7 0.00 0.00 0.00 60 1007.1
20260505064749 5 314 11.3 25.7 0.00 0.00 0.00 60 1007.3
20260505064606 5 337 9.7 25.7 0.00 0.00 0.00 60 1007.3
20260505064531 5 340 11.3 25.7 0.00 0.00 0.00 60 1007.3
20260505064414 5 360 12.9 25.7 0.00 0.00 0.00 59 1007.3
20260505064317 5 329 11.3 25.7 0.00 0.00 0.00 60 1007.2
20260505064205 5 307 8.0 20.9 0.00 0.00 0.00 60 1007.3
20260505064109 5 336 11.3 20.9 0.00 0.00 0.00 60 1007.3
20260505064013 5 344 11.3 20.9 0.00 0.00 0.00 59 1007.4
20260505063937 5 338 11.3 20.9 0.00 0.00 0.00 60 1007.4
20260505063821 5 360 8.0 20.9 0.00 0.00 0.00 60 1007.3
20260505063724 5 340 9.7 20.9 0.00 0.00 0.00 60 1007.3
20260505063613 5 337 9.7 20.9 0.00 0.00 0.00 60 1007.3
20260505063537 5 355 6.4 17.7 0.00 0.00 0.00 60 1007.3
20260505063439 5 14 8.0 17.7 0.00 0.00 0.00 60 1007.3
20260505063322 5 348 9.7 17.7 0.00 0.00 0.00 59 1007.3
20260505063207 5 337 9.7 17.7 0.00 0.00 0.00 59 1007.3
20260505063111 5 339 8.0 17.7 0.00 0.00 0.00 60 1007.3
20260505063015 5 337 9.7 17.7 0.00 0.00 0.00 59 1007.3
20260505062923 5 324 11.3 17.7 0.00 0.00 0.00 59 1007.4
20260505062827 5 306 8.0 19.3 0.00 0.00 0.00 59 1007.3
20260505062710 5 293 8.0 19.3 0.00 0.00 0.00 58 1007.4
20260505062614 5 333 9.7 19.3 0.00 0.00 0.00 58 1007.3
20260505062518 5 313 9.7 19.3 0.00 0.00 0.00 58 1007.3
20260505062442 5 348 9.7 19.3 0.00 0.00 0.00 58 1007.2
20260505062306 5 334 9.7 19.3 0.00 0.00 0.00 58 1007.3
20260505062214 5 319 9.7 19.3 0.00 0.00 0.00 59 1007.3
20260505062138 5 346 9.7 19.3 0.00 0.00 0.00 59 1007.3
20260505062020 5 318 9.7 19.3 0.00 0.00 0.00 58 1007.2
20260505061924 5 321 11.3 19.3 0.00 0.00 0.00 58 1007.3
20260505061809 5 347 11.3 17.7 0.00 0.00 0.00 58 1007.2
20260505061715 5 337 9.7 22.5 0.00 0.00 0.00 59 1007.3
20260505061605 5 340 8.0 22.5 0.00 0.00 0.00 59 1007.2
20260505061530 5 355 8.0 22.5 0.00 0.00 0.00 59 1007.3
20260505061413 6 322 8.0 22.5 0.00 0.00 0.00 59 1007.3
20260505061318 6 313 9.7 22.5 0.00 0.00 0.00 58 1007.3
20260505061223 6 313 8.0 22.5 0.00 0.00 0.00 59 1007.3
20260505061129 6 325 9.7 22.5 0.00 0.00 0.00 58 1007.4
20260505061014 6 298 9.7 22.5 0.00 0.00 0.00 58 1007.4
20260505060943 6 321 12.9 22.5 0.00 0.00 0.00 58 1007.3
20260505060808 6 304 12.9 22.5 0.00 0.00 0.00 58 1007.4
20260505060733 6 313 8.0 19.3 0.00 0.00 0.00 58 1007.3
20260505060637 6 321 9.7 19.3 0.00 0.00 0.00 57 1007.3
20260505060521 6 315 11.3 22.5 0.00 0.00 0.00 57 1007.3
20260505060406 6 349 9.7 22.5 0.00 0.00 0.00 58 1007.3
20260505060311 6 335 9.7 22.5 0.00 0.00 0.00 58 1007.3
20260505060219 6 360 8.0 22.5 0.00 0.00 0.00 58 1007.3
20260505060105 6 326 9.7 22.5 0.00 0.00 0.00 58 1007.3
20260505060011 6 355 11.3 22.5 0.00 0.00 0.00 57 1007.3
20260505055917 6 317 11.3 25.7 0.00 0.00 0.00 58 1007.2
20260505055822 6 337 12.9 25.7 0.00 0.00 0.00 58 1007.3
20260505055712 6 347 14.5 25.7 0.00 0.00 0.00 58 1007.2
20260505055637 6 332 12.9 25.7 0.00 0.00 0.00 58 1007.1
20260505055521 6 331 9.7 25.7 0.00 0.00 0.00 58 1007.1
20260505055445 6 317 9.7 25.7 0.00 0.00 0.00 58 1007.1
20260505055309 6 336 11.3 25.7 0.00 0.00 0.00 58 1007.1
20260505055213 6 323 12.9 25.7 0.00 0.00 0.00 57 1007.1
20260505055117 6 337 14.5 25.7 0.00 0.00 0.00 58 1007.1
20260505055005 6 344 9.7 22.5 0.00 0.00 0.00 58 1007.1
20260505054910 6 347 9.7 22.5 0.00 0.00 0.00 57 1007.2
20260505054813 6 355 12.9 22.5 0.00 0.00 0.00 58 1007.1
20260505054717 6 17 11.3 22.5 0.00 0.00 0.00 58 1007.2
20260505054621 6 333 9.7 22.5 0.00 0.00 0.00 59 1007.2
20260505054506 6 336 12.9 20.9 0.00 0.00 0.00 58 1007.1
20260505054413 6 9 12.9 20.9 0.00 0.00 0.00 58 1007.0
20260505054318 6 360 14.5 20.9 0.00 0.00 0.00 58 1007.1
20260505054241 6 295 12.9 20.9 0.00 0.00 0.00 58 1007.1
20260505054124 6 325 11.3 20.9 0.00 0.00 0.00 58 1007.1
20260505054008 6 329 11.3 20.9 0.00 0.00 0.00 58 1007.1
20260505053912 6 351 12.9 20.9 0.00 0.00 0.00 58 1007.1
20260505053821 6 301 11.3 20.9 0.00 0.00 0.00 58 1007.1
20260505053706 6 309 11.3 20.9 0.00 0.00 0.00 58 1007.0
20260505053610 6 347 14.5 20.9 0.00 0.00 0.00 58 1007.1
20260505053513 6 355 12.9 20.9 0.00 0.00 0.00 59 1007.1
20260505053418 6 331 12.9 20.9 0.00 0.00 0.00 58 1007.1
20260505053323 6 13 12.9 20.9 0.00 0.00 0.00 58 1007.1
20260505053211 6 320 11.3 20.9 0.00 0.00 0.00 58 1007.0
20260505053115 6 334 11.3 19.3 0.00 0.00 0.00 58 1007.0
20260505053020 6 355 9.7 20.9 0.00 0.00 0.00 59 1007.0
20260505052923 6 302 9.7 20.9 0.00 0.00 0.00 59 1007.0
20260505052807 6 323 9.7 20.9 0.00 0.00 0.00 59 1007.0
20260505052711 6 326 8.0 20.9 0.00 0.00 0.00 58 1007.0
20260505052620 6 340 8.0 20.9 0.00 0.00 0.00 58 1007.0
20260505052504 6 300 11.3 20.9 0.00 0.00 0.00 58 1007.0
20260505052429 6 341 14.5 20.9 0.00 0.00 0.00 58 1007.0
20260505052305 6 347 14.5 20.9 0.00 0.00 0.00 58 1007.0
20260505052211 6 307 11.3 20.9 0.00 0.00 0.00 58 1007.0
20260505052115 6 333 12.9 20.9 0.00 0.00 0.00 58 1007.0
20260505052024 6 291 14.5 20.9 0.00 0.00 0.00 58 1006.9
20260505051909 6 331 14.5 20.9 0.00 0.00 0.00 58 1007.0
20260505051812 6 349 14.5 20.9 0.00 0.00 0.00 58 1007.0
20260505051715 6 336 12.9 19.3 0.00 0.00 0.00 58 1007.0
20260505051618 6 310 9.7 19.3 0.00 0.00 0.00 58 1007.0
20260505051522 6 313 8.0 19.3 0.00 0.00 0.00 59 1006.9
20260505051429 6 322 8.0 19.3 0.00 0.00 0.00 58 1006.9
20260505051305 6 311 11.3 19.3 0.00 0.00 0.00 57 1006.8
20260505051228 6 307 11.3 19.3 0.00 0.00 0.00 58 1006.9
20260505051105 6 355 11.3 19.3 0.00 0.00 0.00 58 1006.8
20260505051008 6 338 12.9 19.3 0.00 0.00 0.00 58 1006.9
20260505050911 6 317 9.7 19.3 0.00 0.00 0.00 59 1006.9
20260505050817 6 335 9.7 17.7 0.00 0.00 0.00 59 1006.9
20260505050721 6 306 11.3 17.7 0.00 0.00 0.00 59 1007.0
20260505050624 6 348 11.3 17.7 0.00 0.00 0.00 59 1007.0
20260505050527 6 333 8.0 17.7 0.00 0.00 0.00 59 1007.0
20260505050430 6 336 8.0 17.7 0.00 0.00 0.00 59 1007.0
20260505050305 6 346 8.0 17.7 0.00 0.00 0.00 59 1006.9
20260505050208 6 338 9.7 17.7 0.00 0.00 0.00 59 1006.9
20260505050115 6 338 9.7 17.7 0.00 0.00 0.00 59 1006.9
20260505041709 6 336 9.7 16.1 0.00 0.00 0.00 57 1006.7
20260505041613 6 321 9.7 16.1 0.00 0.00 0.00 57 1006.8
20260505041517 6 315 9.7 16.1 0.00 0.00 0.00 57 1006.7
20260505041406 6 355 8.0 16.1 0.00 0.00 0.00 57 1006.7
20260505041331 6 320 8.0 16.1 0.00 0.00 0.00 57 1006.7
20260505041214 6 304 8.0 16.1 0.00 0.00 0.00 57 1006.7
20260505041118 7 305 8.0 16.1 0.00 0.00 0.00 58 1006.7
20260505041024 6 313 6.4 16.1 0.00 0.00 0.00 57 1006.7
20260505040929 6 337 8.0 19.3 0.00 0.00 0.00 56 1006.8
20260505040815 7 296 9.7 19.3 0.00 0.00 0.00 56 1006.7
20260505040719 7 350 9.7 19.3 0.00 0.00 0.00 55 1006.8
20260505040623 7 307 9.7 19.3 0.00 0.00 0.00 56 1006.7
20260505040509 6 323 8.0 19.3 0.00 0.00 0.00 56 1006.7
20260505040432 6 331 9.7 19.3 0.00 0.00 0.00 56 1006.7
20260505040315 6 344 11.3 19.3 0.00 0.00 0.00 56 1006.7
20260505040219 6 348 11.3 19.3 0.00 0.00 0.00 56 1006.7
20260505040128 6 326 12.9 19.3 0.00 0.00 0.00 57 1006.7
20260505040005 6 300 11.3 17.7 0.00 0.00 0.00 56 1006.8
20260505035929 6 337 9.7 17.7 0.00 0.00 0.00 57 1006.7
20260505035812 6 288 11.3 17.7 0.00 0.00 0.00 56 1006.8
20260505035717 6 317 11.3 17.7 0.00 0.00 0.00 57 1006.8
20260505035622 6 321 8.0 16.1 0.00 0.00 0.00 58 1006.7
20260505035510 6 317 6.4 17.7 0.00 0.00 0.00 58 1006.7
20260505035413 6 346 6.4 17.7 0.00 0.00 0.00 59 1006.7
20260505035317 6 298 8.0 17.7 0.00 0.00 0.00 58 1006.6
20260505035222 6 307 8.0 17.7 0.00 0.00 0.00 57 1006.7
20260505035126 6 306 6.4 17.7 0.00 0.00 0.00 58 1006.7
20260505035011 6 327 8.0 17.7 0.00 0.00 0.00 57 1006.7
20260505034918 6 355 9.7 17.7 0.00 0.00 0.00 58 1006.6
20260505034843 6 304 9.7 17.7 0.00 0.00 0.00 58 1006.6
20260505034727 6 331 8.0 14.5 0.00 0.00 0.00 58 1006.7
20260505034631 6 307 8.0 14.5 0.00 0.00 0.00 58 1006.6
20260505034507 6 309 8.0 14.5 0.00 0.00 0.00 58 1006.7
20260505034410 6 338 6.4 14.5 0.00 0.00 0.00 58 1006.6
20260505034315 6 304 8.0 14.5 0.00 0.00 0.00 58 1006.7
20260505034238 6 294 8.0 14.5 0.00 0.00 0.00 58 1006.7
20260505034106 6 325 8.0 12.9 0.00 0.00 0.00 58 1006.6
20260505034010 6 309 8.0 12.9 0.00 0.00 0.00 58 1006.7
20260505033915 6 309 6.4 9.7 0.00 0.00 0.00 58 1006.7
20260505033819 6 299 4.8 9.7 0.00 0.00 0.00 58 1006.6
20260505033723 6 312 4.8 9.7 0.00 0.00 0.00 59 1006.6
20260505033612 6 303 6.4 9.7 0.00 0.00 0.00 59 1006.6
20260505033514 6 311 6.4 9.7 0.00 0.00 0.00 58 1006.6
20260505033419 6 315 4.8 12.9 0.00 0.00 0.00 58 1006.6
20260505033323 6 306 4.8 12.9 0.00 0.00 0.00 58 1006.6
20260505033226 6 298 6.4 12.9 0.00 0.00 0.00 58 1006.7
20260505033111 6 315 6.4 12.9 0.00 0.00 0.00 58 1006.7
20260505033014 6 344 6.4 12.9 0.00 0.00 0.00 59 1006.7
20260505032920 6 331 6.4 12.9 0.00 0.00 0.00 58 1006.6
20260505032806 6 302 6.4 12.9 0.00 0.00 0.00 58 1006.6
20260505032709 6 307 6.4 12.9 0.00 0.00 0.00 59 1006.6
20260505032634 6 312 6.4 12.9 0.00 0.00 0.00 59 1006.6
20260505032518 6 297 6.4 12.9 0.00 0.00 0.00 59 1006.6
20260505032422 6 300 4.8 12.9 0.00 0.00 0.00 59 1006.6
20260505032312 6 327 4.8 12.9 0.00 0.00 0.00 59 1006.6
20260505032216 6 306 4.8 12.9 0.00 0.00 0.00 57 1006.5
20260505032120 7 304 4.8 12.9 0.00 0.00 0.00 58 1006.6
20260505032006 7 309 6.4 12.9 0.00 0.00 0.00 58 1006.6
20260505031930 7 309 6.4 12.9 0.00 0.00 0.00 58 1006.5
20260505031805 7 313 4.8 12.9 0.00 0.00 0.00 56 1006.6
20260505031713 7 313 4.8 9.7 0.00 0.00 0.00 56 1006.6
20260505031619 7 315 6.4 9.7 0.00 0.00 0.00 55 1006.6
20260505031522 7 311 6.4 9.7 0.00 0.00 0.00 56 1006.5
20260505031426 7 302 4.8 9.7 0.00 0.00 0.00 54 1006.6
20260505031331 7 288 4.8 9.7 0.00 0.00 0.00 56 1006.6
20260505031213 7 291 4.8 9.7 0.00 0.00 0.00 54 1006.6
20260505031117 7 311 4.8 9.7 0.00 0.00 0.00 55 1006.6
20260505031005 7 319 6.4 9.7 0.00 0.00 0.00 54 1006.6
20260505030907 7 319 6.4 9.7 0.00 0.00 0.00 54 1006.6
20260505030812 7 320 6.4 9.7 0.00 0.00 0.00 55 1006.7
20260505030715 7 293 6.4 9.7 0.00 0.00 0.00 55 1006.7
20260505030618 7 305 6.4 14.5 0.00 0.00 0.00 55 1006.6
20260505030523 7 355 6.4 16.1 0.00 0.00 0.00 54 1006.6
20260505030412 7 315 6.4 17.7 0.00 0.00 0.00 54 1006.6
20260505030316 7 305 6.4 17.7 0.00 0.00 0.00 54 1006.6
20260505030239 7 313 4.8 17.7 0.00 0.00 0.00 54 1006.6
20260505030123 7 324 4.8 17.7 0.00 0.00 0.00 53 1006.6
20260505030027 7 340 4.8 17.7 0.00 0.00 0.00 53 1006.5
20260505025904 7 318 6.4 17.7 0.00 0.00 0.00 52 1006.5
20260505025829 7 307 8.0 17.7 0.00 0.00 0.00 52 1006.5
20260505025716 7 335 11.3 17.7 0.00 0.00 0.00 52 1006.4
20260505025621 7 319 9.7 17.7 0.00 0.00 0.00 53 1006.4
20260505025523 7 306 6.4 16.1 0.00 0.00 0.00 53 1006.4
20260505025428 7 323 6.4 9.7 0.00 0.00 0.00 53 1006.5
20260505025305 7 333 6.4 14.5 0.00 0.00 0.00 54 1006.4
20260505025209 7 329 4.8 14.5 0.00 0.00 0.00 53 1006.4
20260505025118 7 328 4.8 14.5 0.00 0.00 0.00 53 1006.4
20260505025042 7 328 4.8 16.1 0.00 0.00 0.00 54 1006.4
20260505024925 7 336 4.8 16.1 0.00 0.00 0.00 53 1006.3
20260505024850 7 317 6.4 16.1 0.00 0.00 0.00 53 1006.3
20260505024706 7 316 6.4 16.1 0.00 0.00 0.00 52 1006.3
20260505024611 7 319 8.0 16.1 0.00 0.00 0.00 52 1006.3
20260505024516 7 328 6.4 16.1 0.00 0.00 0.00 51 1006.2
20260505024444 7 342 4.8 16.1 0.00 0.00 0.00 52 1006.2
20260505024327 7 328 8.0 16.1 0.00 0.00 0.00 52 1006.2
20260505024231 7 350 9.7 16.1 0.00 0.00 0.00 51 1006.2
20260505024107 7 331 8.0 16.1 0.00 0.00 0.00 52 1006.2
20260505024032 7 342 6.4 16.1 0.00 0.00 0.00 52 1006.2
20260505023935 7 350 8.0 16.1 0.00 0.00 0.00 52 1006.2
20260505023818 7 329 9.7 16.1 0.00 0.00 0.00 52 1006.1
20260505023707 7 329 6.4 16.1 0.00 0.00 0.00 52 1006.1
20260505023611 7 351 6.4 16.1 0.00 0.00 0.00 52 1006.1
20260505023517 7 303 8.0 16.1 0.00 0.00 0.00 52 1006.2
20260505023422 7 341 8.0 16.1 0.00 0.00 0.00 52 1006.1
20260505023326 7 336 9.7 16.1 0.00 0.00 0.00 52 1006.1
20260505023210 7 337 9.7 16.1 0.00 0.00 0.00 52 1006.2
20260505023114 7 360 6.4 16.1 0.00 0.00 0.00 52 1006.2
20260505023022 7 349 6.4 16.1 0.00 0.00 0.00 52 1006.1
20260505022926 7 312 6.4 16.1 0.00 0.00 0.00 52 1006.1
20260505022804 7 315 8.0 16.1 0.00 0.00 0.00 53 1006.1
20260505022707 7 300 8.0 16.1 0.00 0.00 0.00 52 1006.2
20260505022632 7 355 6.4 16.1 0.00 0.00 0.00 53 1006.2
20260505022514 7 346 8.0 16.1 0.00 0.00 0.00 53 1006.2
20260505022421 7 312 9.7 16.1 0.00 0.00 0.00 52 1006.1
20260505022326 7 329 8.0 14.5 0.00 0.00 0.00 52 1006.1
20260505022207 7 27 6.4 14.5 0.00 0.00 0.00 52 1006.1
20260505022111 7 315 6.4 12.9 0.00 0.00 0.00 52 1006.0
20260505022033 7 346 6.4 12.9 0.00 0.00 0.00 51 1006.0
20260505021915 7 339 6.4 12.9 0.00 0.00 0.00 52 1006.0
20260505021820 7 302 6.4 12.9 0.00 0.00 0.00 51 1006.0
20260505021707 7 331 6.4 12.9 0.00 0.00 0.00 51 1006.0
20260505021631 7 325 6.4 12.9 0.00 0.00 0.00 51 1005.9
20260505021507 7 11 8.0 12.9 0.00 0.00 0.00 51 1005.9
20260505021409 7 36 6.4 9.7 0.00 0.00 0.00 51 1005.9
20260505021314 7 355 4.8 9.7 0.00 0.00 0.00 51 1005.9
20260505021217 7 323 6.4 9.7 0.00 0.00 0.00 50 1005.9
20260505021104 7 344 4.8 9.7 0.00 0.00 0.00 53 1005.9
20260505021029 7 350 4.8 9.7 0.00 0.00 0.00 51 1005.9
20260505020905 7 355 6.4 9.7 0.00 0.00 0.00 52 1005.9
20260505020809 7 340 6.4 11.3 0.00 0.00 0.00 52 1005.9
20260505020734 7 350 4.8 9.7 0.00 0.00 0.00 52 1005.9
20260505020617 7 325 4.8 9.7 0.00 0.00 0.00 51 1005.9
20260505020521 8 325 3.2 9.7 0.00 0.00 0.00 51 1005.8
20260505020427 8 342 4.8 9.7 0.00 0.00 0.00 51 1005.8
20260505020351 8 319 6.4 12.9 0.00 0.00 0.00 51 1005.8
20260505020207 8 355 6.4 17.7 0.00 0.00 0.00 49 1005.8
20260505020110 8 345 4.8 17.7 0.00 0.00 0.00 50 1005.8
20260505020013 8 347 4.8 17.7 0.00 0.00 0.00 49 1005.9
20260505015937 8 330 6.4 19.3 0.00 0.00 0.00 49 1005.8
20260505015818 8 303 6.4 19.3 0.00 0.00 0.00 50 1005.8
20260505015725 8 12 6.4 19.3 0.00 0.00 0.00 49 1005.8
20260505015648 8 351 6.4 19.3 0.00 0.00 0.00 50 1005.8
20260505015551 8 331 9.7 19.3 0.00 0.00 0.00 50 1005.8
20260505015407 8 321 11.3 20.9 0.00 0.00 0.00 50 1005.8
20260505015310 8 341 9.7 20.9 0.00 0.00 0.00 48 1005.8
20260505015214 8 346 11.3 20.9 0.00 0.00 0.00 47 1005.8
20260505015118 8 355 12.9 20.9 0.00 0.00 0.00 47 1005.8
20260505015006 8 355 12.9 20.9 0.00 0.00 0.00 47 1005.7
20260505014930 8 341 11.3 20.9 0.00 0.00 0.00 48 1005.7
20260505014807 8 5 9.7 20.9 0.00 0.00 0.00 48 1005.7
20260505014711 8 355 11.3 20.9 0.00 0.00 0.00 47 1005.7
20260505014615 8 360 12.9 20.9 0.00 0.00 0.00 47 1005.7
20260505014519 8 5 12.9 20.9 0.00 0.00 0.00 47 1005.6
20260505014405 8 26 12.9 19.3 0.00 0.00 0.00 47 1005.7
20260505014329 8 324 11.3 19.3 0.00 0.00 0.00 47 1005.7
20260505014206 8 355 9.7 19.3 0.00 0.00 0.00 48 1005.7
20260505014110 8 329 8.0 19.3 0.00 0.00 0.00 48 1005.7
20260505014014 8 33 9.7 25.7 0.00 0.00 0.00 48 1005.6
20260505013917 8 330 12.9 25.7 0.00 0.00 0.00 47 1005.7
20260505013825 8 348 14.5 25.7 0.00 0.00 0.00 47 1005.6
20260505013750 8 355 14.5 25.7 0.00 0.00 0.00 47 1005.6
20260505013604 8 342 9.7 25.7 0.00 0.00 0.00 47 1005.6
20260505013507 8 19 11.3 25.7 0.00 0.00 0.00 47 1005.6
20260505013411 8 355 14.5 25.7 0.00 0.00 0.00 47 1005.6
20260505013334 8 336 16.1 25.7 0.00 0.00 0.00 47 1005.5
20260505013236 8 329 16.1 25.7 0.00 0.00 0.00 47 1005.6
20260505013118 8 348 14.5 24.1 0.00 0.00 0.00 48 1005.5
20260505013005 8 338 12.9 24.1 0.00 0.00 0.00 48 1005.5
20260505012909 8 331 9.7 24.1 0.00 0.00 0.00 48 1005.6
20260505012811 8 5 11.3 27.4 0.00 0.00 0.00 48 1005.5
20260505012713 8 316 16.1 27.4 0.00 0.00 0.00 48 1005.5
20260505012616 8 346 16.1 27.4 0.00 0.00 0.00 47 1005.5
20260505012540 8 349 14.5 27.4 0.00 0.00 0.00 47 1005.5
20260505012405 8 312 14.5 29.0 0.00 0.00 0.00 48 1005.5
20260505012309 8 5 12.9 29.0 0.00 0.00 0.00 47 1005.4
20260505012213 8 347 14.5 29.0 0.00 0.00 0.00 47 1005.4
20260505012116 8 355 17.7 29.0 0.00 0.00 0.00 46 1005.4
20260505012039 8 355 16.1 29.0 0.00 0.00 0.00 47 1005.3
20260505011921 8 339 14.5 30.6 0.00 0.00 0.00 47 1005.4
20260505011808 8 316 16.1 30.6 0.00 0.00 0.00 47 1005.4
20260505011708 8 355 20.9 30.6 0.00 0.00 0.00 46 1005.3
20260505011613 8 360 20.9 30.6 0.00 0.00 0.00 46 1005.3
20260505011515 8 360 17.7 30.6 0.00 0.00 0.00 46 1005.4
20260505011438 8 355 14.5 30.6 0.00 0.00 0.00 47 1005.4
20260505011320 9 355 14.5 30.6 0.00 0.00 0.00 48 1005.3
20260505011205 9 326 16.1 32.2 0.00 0.00 0.00 47 1005.3
20260505011111 9 5 14.5 32.2 0.00 0.00 0.00 47 1005.3
20260505011014 9 360 11.3 32.2 0.00 0.00 0.00 49 1005.3
20260505010914 9 24 11.3 32.2 0.00 0.00 0.00 49 1005.3
20260505010817 9 315 12.9 32.2 0.00 0.00 0.00 47 1005.3
20260505010720 9 349 14.5 32.2 0.00 0.00 0.00 47 1005.2
20260505010624 9 351 17.7 32.2 0.00 0.00 0.00 47 1005.3
20260505010530 9 344 19.3 32.2 0.00 0.00 0.00 47 1005.2
20260505010406 9 346 20.9 32.2 0.00 0.00 0.00 48 1005.1
20260505010309 9 346 19.3 30.6 0.00 0.00 0.00 47 1005.2
20260505010233 9 20 20.9 37.0 0.00 0.00 0.00 47 1005.1
20260505010116 9 28 19.3 37.0 0.00 0.00 0.00 48 1005.2
20260505010018 9 325 16.1 37.0 0.00 0.00 0.00 48 1005.2
20260505005942 9 344 16.1 37.0 0.00 0.00 0.00 48 1005.0
20260505005807 9 312 19.3 37.0 0.00 0.00 0.00 48 1005.0
20260505005711 9 5 19.3 37.0 0.00 0.00 0.00 48 1005.1
20260505005612 9 360 19.3 37.0 0.00 0.00 0.00 48 1005.0
20260505005515 9 11 17.7 37.0 0.00 0.00 0.00 48 1005.0
20260505005418 9 360 19.3 37.0 0.00 0.00 0.00 48 1005.0
20260505005342 9 5 24.1 37.0 0.00 0.00 0.00 48 1005.0
20260505005224 9 350 24.1 37.0 0.00 0.00 0.00 48 1005.0
20260505005152 9 16 24.1 37.0 0.00 0.00 0.00 48 1005.0
20260505005006 9 342 22.5 37.0 0.00 0.00 0.00 48 1005.0
20260505004930 9 351 17.7 35.4 0.00 0.00 0.00 50 1004.9
20260505004813 9 360 17.7 35.4 0.00 0.00 0.00 49 1005.0
20260505004716 9 327 20.9 35.4 0.00 0.00 0.00 48 1005.0
20260505004619 9 342 19.3 30.6 0.00 0.00 0.00 49 1005.0
20260505004506 9 9 20.9 30.6 0.00 0.00 0.00 49 1005.0
20260505004409 9 338 17.7 30.6 0.00 0.00 0.00 49 1005.0
20260505004312 9 355 17.7 30.6 0.00 0.00 0.00 49 1004.9
20260505004235 9 17 20.9 30.6 0.00 0.00 0.00 48 1004.9
20260505004138 9 23 20.9 30.6 0.00 0.00 0.00 49 1004.8
20260505004020 9 32 19.3 29.0 0.00 0.00 0.00 50 1004.8
20260505003923 9 355 16.1 29.0 0.00 0.00 0.00 49 1004.9
20260505003812 9 344 17.7 40.2 0.00 0.00 0.00 48 1004.9
20260505003736 9 345 19.3 40.2 0.00 0.00 0.00 49 1004.9
20260505003618 9 17 19.3 40.2 0.00 0.00 0.00 49 1004.9
20260505003522 9 317 16.1 40.2 0.00 0.00 0.00 49 1004.9
20260505003406 9 5 19.3 40.2 0.00 0.00 0.00 48 1004.9
20260505003330 10 340 19.3 40.2 0.00 0.00 0.00 48 1004.9
20260505003207 10 12 17.7 40.2 0.00 0.00 0.00 48 1004.9
20260505003116 10 5 17.7 40.2 0.00 0.00 0.00 48 1004.9
20260505003020 10 334 19.3 40.2 0.00 0.00 0.00 48 1004.8
20260505002905 10 360 20.9 37.0 0.00 0.00 0.00 47 1004.8
20260505002828 10 350 20.9 37.0 0.00 0.00 0.00 47 1004.7
20260505002705 10 5 19.3 37.0 0.00 0.00 0.00 47 1004.7
20260505002610 10 5 24.1 37.0 0.00 0.00 0.00 47 1004.7
20260505002537 10 350 27.4 37.0 0.00 0.00 0.00 47 1004.6
20260505002440 10 17 24.1 37.0 0.00 0.00 0.00 47 1004.7
20260505002343 10 344 19.3 33.8 0.00 0.00 0.00 48 1004.6
20260505002226 10 338 20.9 33.8 0.00 0.00 0.00 47 1004.7
20260505002130 10 355 19.3 33.8 0.00 0.00 0.00 48 1004.6
20260505002011 10 5 17.7 33.8 0.00 0.00 0.00 48 1004.6
20260505001914 10 53 19.3 33.8 0.00 0.00 0.00 48 1004.6
20260505001818 10 38 20.9 33.8 0.00 0.00 0.00 47 1004.6
20260505001706 10 355 17.7 33.8 0.00 0.00 0.00 47 1004.6
20260505001630 10 17 19.3 33.8 0.00 0.00 0.00 47 1004.5
20260505001513 10 306 20.9 33.8 0.00 0.00 0.00 48 1004.5
20260505001418 10 338 19.3 41.8 0.00 0.00 0.00 48 1004.5
20260505001322 10 337 17.7 41.8 0.00 0.00 0.00 47 1004.6
20260505001206 10 344 19.3 41.8 0.00 0.00 0.00 46 1004.5
20260505001111 10 355 20.9 41.8 0.00 0.00 0.00 46 1004.5
20260505001018 10 333 22.5 41.8 0.00 0.00 0.00 46 1004.4
20260505000922 10 331 19.3 43.5 0.00 0.00 0.00 46 1004.4
20260505000827 10 13 20.9 43.5 0.00 0.00 0.00 46 1004.4
20260505000751 10 360 27.4 43.5 0.00 0.00 0.00 45 1004.4
20260505000606 10 333 25.7 43.5 0.00 0.00 0.00 45 1004.4
20260505000508 10 336 24.1 43.5 0.00 0.00 0.00 45 1004.3
20260505000417 11 30 25.7 43.5 0.00 0.00 0.00 45 1004.4
20260505000340 11 5 27.4 43.5 0.00 0.00 0.00 45 1004.3
20260505000204 11 350 25.7 43.5 0.00 0.00 0.00 45 1004.3
20260505000128 11 327 25.7 43.5 0.00 0.00 0.00 45 1004.2
20260505000005 11 5 19.3 38.6 0.00 0.00 0.00 45 1004.2
20260504235910 11 360 17.7 30.6 0.00 0.00 0.00 45 1004.3
20260504235814 11 5 17.7 35.4 0.00 0.00 0.00 44 1004.2
20260504235741 11 348 17.7 35.4 0.00 0.00 0.00 44 1004.1
20260504235605 11 346 19.3 35.4 0.00 0.00 0.00 44 1004.0
20260504235509 11 22 17.7 35.4 0.00 0.00 0.00 44 1004.1
20260504235413 11 335 16.1 35.4 0.00 0.00 0.00 44 1004.1
20260504235318 11 336 14.5 35.4 0.00 0.00 0.00 45 1004.1
20260504235242 11 355 16.1 35.4 0.00 0.00 0.00 45 1004.1
20260504235145 11 343 20.9 35.4 0.00 0.00 0.00 44 1004.1
20260504235012 11 343 25.7 35.4 0.00 0.00 0.00 43 1004.0
20260504234936 11 323 24.1 35.4 0.00 0.00 0.00 43 1004.0
20260504234819 11 323 20.9 32.2 0.00 0.00 0.00 44 1004.0
20260504234723 11 336 16.1 32.2 0.00 0.00 0.00 45 1003.9
20260504234648 11 346 19.3 32.2 0.00 0.00 0.00 44 1004.0
20260504234504 11 348 22.5 32.2 0.00 0.00 0.00 44 1004.0
20260504234408 11 348 22.5 32.2 0.00 0.00 0.00 44 1004.0
20260504234316 11 355 19.3 32.2 0.00 0.00 0.00 44 1003.8
20260504234220 11 355 17.7 32.2 0.00 0.00 0.00 44 1003.9
20260504234105 11 13 16.1 32.2 0.00 0.00 0.00 44 1003.8
20260504234009 11 344 16.1 37.0 0.00 0.00 0.00 44 1003.9
20260504233912 11 5 19.3 37.0 0.00 0.00 0.00 44 1003.9
20260504233817 11 5 16.1 38.6 0.00 0.00 0.00 44 1003.9
20260504233705 11 5 16.1 38.6 0.00 0.00 0.00 44 1003.9
20260504233630 11 355 17.7 38.6 0.00 0.00 0.00 43 1003.9
20260504233512 11 350 17.7 38.6 0.00 0.00 0.00 43 1003.8
20260504233417 11 5 17.7 40.2 0.00 0.00 0.00 44 1003.8
20260504233321 11 348 20.9 40.2 0.00 0.00 0.00 44 1003.7
20260504233206 11 17 25.7 40.2 0.00 0.00 0.00 42 1003.8
20260504233114 11 355 25.7 40.2 0.00 0.00 0.00 42 1003.6
20260504233019 11 360 22.5 40.2 0.00 0.00 0.00 43 1003.8
20260504232923 11 5 22.5 40.2 0.00 0.00 0.00 44 1003.8
20260504232828 11 331 25.7 40.2 0.00 0.00 0.00 44 1003.7
20260504232710 11 355 25.7 40.2 0.00 0.00 0.00 43 1003.7
20260504232614 12 23 27.4 40.2 0.00 0.00 0.00 43 1003.6
20260504232523 12 30 29.0 38.6 0.00 0.00 0.00 43 1003.7
20260504232427 12 10 29.0 38.6 0.00 0.00 0.00 43 1003.6
20260504232330 12 21 25.7 38.6 0.00 0.00 0.00 43 1003.6
20260504232207 12 338 24.1 38.6 0.00 0.00 0.00 43 1003.6
20260504232130 12 325 24.1 38.6 0.00 0.00 0.00 44 1003.7
20260504232013 12 22 16.1 35.4 0.00 0.00 0.00 45 1003.5
20260504231939 11 339 14.5 30.6 0.00 0.00 0.00 45 1003.6
20260504231805 11 9 17.7 33.8 0.00 0.00 0.00 44 1003.6
20260504231729 11 344 19.3 33.8 0.00 0.00 0.00 45 1003.6
20260504231606 11 328 19.3 33.8 0.00 0.00 0.00 45 1003.5
20260504231511 11 360 19.3 33.8 0.00 0.00 0.00 45 1003.6
20260504231436 11 334 17.7 33.8 0.00 0.00 0.00 45 1003.6
20260504231319 12 292 17.7 33.8 0.00 0.00 0.00 44 1003.6
20260504231222 12 11 22.5 33.8 0.00 0.00 0.00 44 1003.6
20260504231111 12 360 24.1 33.8 0.00 0.00 0.00 43 1003.6
20260504231015 12 355 22.5 33.8 0.00 0.00 0.00 44 1003.5
20260504230920 12 17 22.5 33.8 0.00 0.00 0.00 43 1003.5
20260504230823 12 350 20.9 38.6 0.00 0.00 0.00 44 1003.6
20260504230728 12 347 16.1 38.6 0.00 0.00 0.00 45 1003.5
20260504230611 12 343 19.3 38.6 0.00 0.00 0.00 43 1003.6
20260504230520 12 347 19.3 38.6 0.00 0.00 0.00 43 1003.5
20260504230404 12 351 20.9 38.6 0.00 0.00 0.00 43 1003.5
20260504230328 12 38 20.9 38.6 0.00 0.00 0.00 43 1003.5
20260504230205 12 323 20.9 38.6 0.00 0.00 0.00 43 1003.5
20260504230129 12 346 22.5 38.6 0.00 0.00 0.00 43 1003.5
20260504230012 12 355 24.1 38.6 0.00 0.00 0.00 42 1003.5
20260504225936 12 339 19.3 38.6 0.00 0.00 0.00 44 1003.5
20260504225822 12 348 16.1 38.6 0.00 0.00 0.00 44 1003.5
20260504225707 12 31 19.3 38.6 0.00 0.00 0.00 43 1003.5
20260504225611 12 355 20.9 38.6 0.00 0.00 0.00 43 1003.5
20260504225536 12 351 25.7 38.6 0.00 0.00 0.00 43 1003.5
20260504225438 12 355 22.5 37.0 0.00 0.00 0.00 43 1003.5
20260504225322 12 331 19.3 37.0 0.00 0.00 0.00 44 1003.5
20260504225207 12 335 19.3 29.0 0.00 0.00 0.00 44 1003.4
20260504225135 12 311 17.7 35.4 0.00 0.00 0.00 43 1003.4
20260504225018 12 295 20.9 37.0 0.00 0.00 0.00 44 1003.4
20260504224923 12 319 20.9 37.0 0.00 0.00 0.00 42 1003.4
20260504224809 12 335 17.7 37.0 0.00 0.00 0.00 43 1003.5
20260504224713 12 350 16.1 37.0 0.00 0.00 0.00 43 1003.5
20260504224617 12 317 17.7 37.0 0.00 0.00 0.00 43 1003.4
20260504224505 12 344 19.3 37.0 0.00 0.00 0.00 43 1003.4
20260504224406 12 344 19.3 37.0 0.00 0.00 0.00 44 1003.4
20260504224331 12 360 22.5 37.0 0.00 0.00 0.00 43 1003.4
20260504224207 12 328 27.4 37.0 0.00 0.00 0.00 43 1003.3
20260504224112 12 344 24.1 37.0 0.00 0.00 0.00 44 1003.3
20260504224017 12 355 20.9 37.0 0.00 0.00 0.00 44 1003.2
20260504223906 12 355 16.1 37.0 0.00 0.00 0.00 45 1003.2
20260504223810 12 327 12.9 37.0 0.00 0.00 0.00 46 1003.2
20260504223716 12 5 14.5 37.0 0.00 0.00 0.00 45 1003.2
20260504223620 12 355 16.1 37.0 0.00 0.00 0.00 44 1003.2
20260504223505 12 350 19.3 37.0 0.00 0.00 0.00 44 1003.2
20260504223430 12 14 22.5 37.0 0.00 0.00 0.00 44 1003.1
20260504223313 12 351 24.1 37.0 0.00 0.00 0.00 43 1003.1
20260504223222 12 338 20.9 38.6 0.00 0.00 0.00 43 1003.1
20260504223127 12 11 14.5 38.6 0.00 0.00 0.00 45 1003.0
20260504223030 12 348 12.9 38.6 0.00 0.00 0.00 45 1003.2
20260504222905 12 5 17.7 38.6 0.00 0.00 0.00 44 1003.0
20260504222809 12 346 24.1 38.6 0.00 0.00 0.00 43 1003.0
20260504222714 12 355 24.1 38.6 0.00 0.00 0.00 44 1002.9
20260504222621 12 344 25.7 38.6 0.00 0.00 0.00 45 1002.9
20260504222505 12 360 25.7 40.2 0.00 0.00 0.00 43 1002.9
20260504222429 12 355 27.4 43.5 0.00 0.00 0.00 44 1002.8
20260504222313 12 350 27.4 43.5 0.00 0.00 0.00 44 1002.9
20260504222217 12 346 20.9 43.5 0.00 0.00 0.00 45 1002.8
20260504222120 12 360 16.1 43.5 0.00 0.00 0.00 44 1002.8
20260504222009 12 340 17.7 43.5 0.00 0.00 0.00 45 1002.8
20260504221912 12 331 22.5 43.5 0.00 0.00 0.00 45 1002.8
20260504221816 12 355 25.7 43.5 0.00 0.00 0.00 45 1002.8
20260504221720 12 333 27.4 43.5 0.00 0.00 0.00 45 1002.9
20260504221644 12 334 20.9 43.5 0.00 0.00 0.00 45 1002.8
20260504221526 12 355 12.9 41.8 0.00 0.00 0.00 46 1002.7
20260504221409 12 355 11.3 41.8 0.00 0.00 0.00 46 1002.7
20260504221332 12 346 12.9 41.8 0.00 0.00 0.00 46 1002.7
20260504221218 12 332 12.9 41.8 0.00 0.00 0.00 45 1002.7
20260504221122 12 17 14.5 41.8 0.00 0.00 0.00 44 1002.7
20260504221007 12 322 22.5 41.8 0.00 0.00 0.00 45 1002.7
20260504220911 12 323 24.1 41.8 0.00 0.00 0.00 45 1002.7
20260504220815 12 348 29.0 41.8 0.00 0.00 0.00 44 1002.7
20260504220720 12 333 27.4 41.8 0.00 0.00 0.00 43 1002.6
20260504220628 12 335 20.9 37.0 0.00 0.00 0.00 45 1002.6
20260504220505 12 21 22.5 37.0 0.00 0.00 0.00 44 1002.6
20260504220409 12 310 25.7 37.0 0.00 0.00 0.00 44 1002.5
20260504220314 12 355 20.9 37.0 0.00 0.00 0.00 45 1002.5
20260504220237 12 345 19.3 37.0 0.00 0.00 0.00 46 1002.6
20260504220141 12 360 20.9 35.4 0.00 0.00 0.00 45 1002.5
20260504220043 12 344 20.9 35.4 0.00 0.00 0.00 46 1002.5
20260504215911 12 328 22.5 35.4 0.00 0.00 0.00 45 1002.6
20260504215835 12 342 20.9 37.0 0.00 0.00 0.00 45 1002.5
20260504215718 12 338 17.7 37.0 0.00 0.00 0.00 46 1002.5
20260504215621 12 39 19.3 37.0 0.00 0.00 0.00 46 1002.5
20260504215506 12 355 20.9 37.0 0.00 0.00 0.00 46 1002.5
20260504215409 12 316 19.3 37.0 0.00 0.00 0.00 46 1002.4
20260504215335 12 335 19.3 37.0 0.00 0.00 0.00 46 1002.4
20260504215238 12 323 19.3 37.0 0.00 0.00 0.00 46 1002.4
20260504215145 13 360 20.9 40.2 0.00 0.00 0.00 45 1002.4
20260504215028 13 5 24.1 40.2 0.00 0.00 0.00 46 1002.4
20260504214905 13 22 20.9 40.2 0.00 0.00 0.00 46 1002.3
20260504214810 13 348 20.9 40.2 0.00 0.00 0.00 45 1002.3
20260504214736 13 5 22.5 40.2 0.00 0.00 0.00 45 1002.3
20260504214639 13 17 24.1 40.2 0.00 0.00 0.00 45 1002.3
20260504214522 13 16 24.1 40.2 0.00 0.00 0.00 45 1002.3
20260504214410 13 19 27.4 40.2 0.00 0.00 0.00 46 1002.1
20260504214315 13 360 24.1 40.2 0.00 0.00 0.00 46 1002.3
20260504214219 13 13 17.7 40.2 0.00 0.00 0.00 47 1002.2
20260504214123 13 38 20.9 40.2 0.00 0.00 0.00 46 1002.2
20260504214027 13 327 27.4 41.8 0.00 0.00 0.00 46 1002.2
20260504213910 13 35 25.7 41.8 0.00 0.00 0.00 45 1002.1
20260504213819 13 5 19.3 41.8 0.00 0.00 0.00 46 1002.1
20260504213723 13 24 17.7 41.8 0.00 0.00 0.00 46 1002.1
20260504213608 13 12 19.3 41.8 0.00 0.00 0.00 46 1002.1
20260504213513 13 13 20.9 41.8 0.00 0.00 0.00 44 1002.2
20260504213417 13 355 27.4 41.8 0.00 0.00 0.00 44 1002.2
20260504213322 13 9 27.4 41.8 0.00 0.00 0.00 44 1002.1
20260504213209 13 344 25.7 41.8 0.00 0.00 0.00 44 1002.1
20260504213113 13 338 27.4 40.2 0.00 0.00 0.00 45 1002.1
20260504213037 13 5 29.0 40.2 0.00 0.00 0.00 45 1002.0
20260504212920 13 351 24.1 35.4 0.00 0.00 0.00 47 1002.0
20260504212844 13 355 20.9 37.0 0.00 0.00 0.00 46 1002.0
20260504212728 13 38 20.9 37.0 0.00 0.00 0.00 47 1002.0
20260504212606 12 347 24.1 37.0 0.00 0.00 0.00 46 1002.0
20260504212514 12 19 24.1 37.0 0.00 0.00 0.00 47 1002.1
20260504212439 12 34 20.9 40.2 0.00 0.00 0.00 46 1002.0
20260504212323 12 9 20.9 40.2 0.00 0.00 0.00 46 1002.0
20260504212226 13 346 24.1 40.2 0.00 0.00 0.00 46 1002.0
20260504212110 13 355 24.1 40.2 0.00 0.00 0.00 46 1002.0
20260504212015 13 355 22.5 40.2 0.00 0.00 0.00 47 1002.0
20260504211918 13 360 19.3 40.2 0.00 0.00 0.00 48 1002.0
20260504211827 13 26 22.5 40.2 0.00 0.00 0.00 46 1001.9
20260504211751 13 15 24.1 40.2 0.00 0.00 0.00 46 1002.0
20260504211607 13 346 22.5 40.2 0.00 0.00 0.00 47 1002.1
20260504211511 13 360 19.3 35.4 0.00 0.00 0.00 46 1001.9
20260504211414 13 360 20.9 35.4 0.00 0.00 0.00 48 1002.0
20260504211319 13 329 24.1 35.4 0.00 0.00 0.00 47 1002.0
20260504211206 13 315 19.3 35.4 0.00 0.00 0.00 49 1001.8
20260504211131 13 355 14.5 33.8 0.00 0.00 0.00 49 1001.9
20260504211007 13 350 14.5 35.4 0.00 0.00 0.00 48 1002.0
20260504210910 13 355 12.9 35.4 0.00 0.00 0.00 49 1001.9
20260504210814 13 346 11.3 35.4 0.00 0.00 0.00 51 1002.0
20260504210719 13 340 16.1 35.4 0.00 0.00 0.00 48 1002.0
20260504210626 13 343 19.3 35.4 0.00 0.00 0.00 47 1002.0
20260504210551 13 349 22.5 35.4 0.00 0.00 0.00 48 1001.9
20260504210406 13 309 22.5 35.4 0.00 0.00 0.00 47 1001.9
20260504210329 13 355 20.9 35.4 0.00 0.00 0.00 48 1001.9
20260504210212 13 5 22.5 35.4 0.00 0.00 0.00 48 1001.9
20260504210116 13 5 20.9 30.6 0.00 0.00 0.00 48 1001.8
20260504210020 13 25 19.3 30.6 0.00 0.00 0.00 48 1001.8
20260504205928 13 9 16.1 30.6 0.00 0.00 0.00 48 1001.8
20260504205851 13 355 17.7 35.4 0.00 0.00 0.00 48 1001.8
20260504205707 13 5 16.1 35.4 0.00 0.00 0.00 46 1001.9
20260504205610 13 336 12.9 35.4 0.00 0.00 0.00 46 1001.8
20260504205513 13 35 17.7 35.4 0.00 0.00 0.00 46 1001.8
20260504205416 13 360 20.9 37.0 0.00 0.00 0.00 46 1001.7
20260504205319 13 347 19.3 37.0 0.00 0.00 0.00 45 1001.8
20260504205206 13 304 20.9 37.0 0.00 0.00 0.00 46 1001.7
20260504205129 13 340 24.1 37.0 0.00 0.00 0.00 45 1001.8
20260504205011 13 19 25.7 37.0 0.00 0.00 0.00 46 1001.7
20260504204914 14 343 22.5 37.0 0.00 0.00 0.00 46 1001.7
20260504204818 14 315 22.5 37.0 0.00 0.00 0.00 46 1001.6
20260504204720 14 332 25.7 37.0 0.00 0.00 0.00 46 1001.7
20260504204608 14 360 22.5 37.0 0.00 0.00 0.00 45 1001.6
20260504204531 14 42 19.3 30.6 0.00 0.00 0.00 46 1001.6
20260504204434 15 360 17.7 30.6 0.00 0.00 0.00 46 1001.5
20260504204315 15 65 17.7 30.6 0.00 0.00 0.00 47 1001.6
20260504204218 15 9 19.3 30.6 0.00 0.00 0.00 46 1001.6
20260504204121 15 360 19.3 35.4 0.00 0.00 0.00 46 1001.6
20260504204022 15 9 19.3 37.0 0.00 0.00 0.00 45 1001.6
20260504203931 15 19 19.3 37.0 0.00 0.00 0.00 46 1001.6
20260504203806 15 325 17.7 37.0 0.00 0.00 0.00 48 1001.7
20260504203709 14 287 16.1 37.0 0.00 0.00 0.00 47 1001.6
20260504203611 14 337 19.3 37.0 0.00 0.00 0.00 47 1001.6
20260504203515 14 360 22.5 37.0 0.00 0.00 0.00 46 1001.6
20260504203417 14 5 24.1 37.0 0.00 0.00 0.00 46 1001.6
20260504203306 14 360 25.7 37.0 0.00 0.00 0.00 47 1001.5
20260504203207 14 13 20.9 37.0 0.00 0.00 0.00 48 1001.5
20260504203131 14 360 19.3 37.0 0.00 0.00 0.00 48 1001.5
20260504203014 14 5 19.3 37.0 0.00 0.00 0.00 47 1001.5
20260504202917 14 346 19.3 37.0 0.00 0.00 0.00 47 1001.5
20260504202820 14 5 19.3 37.0 0.00 0.00 0.00 47 1001.5
20260504202708 13 30 20.9 37.0 0.00 0.00 0.00 48 1001.5
20260504202610 13 11 20.9 37.0 0.00 0.00 0.00 50 1001.5
20260504202513 13 355 22.5 37.0 0.00 0.00 0.00 49 1001.5
20260504202417 13 345 22.5 37.0 0.00 0.00 0.00 48 1001.6
20260504202319 13 5 19.3 37.0 0.00 0.00 0.00 49 1001.5
20260504202243 13 31 17.7 46.7 0.00 0.00 0.00 49 1001.5
20260504202123 13 347 20.9 46.7 0.00 0.00 0.00 49 1001.5
20260504202031 13 5 22.5 46.7 0.00 0.00 0.00 47 1001.4
20260504201907 13 38 19.3 46.7 0.00 0.00 0.00 48 1001.4
20260504201810 13 36 19.3 46.7 0.00 0.00 0.00 48 1001.4
20260504201733 13 355 20.9 46.7 0.00 0.00 0.00 47 1001.4
20260504201615 13 351 22.5 46.7 0.00 0.00 0.00 48 1001.5
20260504201519 13 19 25.7 46.7 0.00 0.00 0.00 48 1001.5
20260504201406 13 5 22.5 46.7 0.00 0.00 0.00 49 1001.4
20260504201328 13 5 19.3 40.2 0.00 0.00 0.00 48 1001.5
20260504201205 13 19 19.3 40.2 0.00 0.00 0.00 48 1001.5
20260504201107 13 360 22.5 40.2 0.00 0.00 0.00 48 1001.5
20260504201012 13 22 20.9 40.2 0.00 0.00 0.00 48 1001.3
20260504200915 13 10 20.9 40.2 0.00 0.00 0.00 47 1001.4
20260504200817 13 355 22.5 40.2 0.00 0.00 0.00 47 1001.4
20260504200705 14 40 25.7 40.2 0.00 0.00 0.00 47 1001.4
20260504200629 14 36 29.0 40.2 0.00 0.00 0.00 47 1001.3
20260504200531 14 32 27.4 40.2 0.00 0.00 0.00 47 1001.3
20260504200406 14 9 24.1 40.2 0.00 0.00 0.00 47 1001.4
20260504200330 15 348 25.7 40.2 0.00 0.00 0.00 48 1001.2
20260504200212 15 15 25.7 41.8 0.00 0.00 0.00 46 1001.3
20260504200115 15 355 25.7 41.8 0.00 0.00 0.00 45 1001.2
20260504200022 15 342 19.3 41.8 0.00 0.00 0.00 45 1001.1
20260504195926 15 355 14.5 41.8 0.00 0.00 0.00 45 1001.0
20260504195808 15 355 19.3 41.8 0.00 0.00 0.00 46 1000.9
20260504195712 15 5 24.1 41.8 0.00 0.00 0.00 45 1001.0
20260504195615 15 348 27.4 41.8 0.00 0.00 0.00 43 1001.2
20260504195518 15 360 24.1 41.8 0.00 0.00 0.00 45 1001.1
20260504195406 15 355 17.7 32.2 0.00 0.00 0.00 46 1000.9
20260504195329 15 5 20.9 35.4 0.00 0.00 0.00 45 1001.0
20260504195204 15 305 20.9 40.2 0.00 0.00 0.00 47 1001.1
20260504195109 15 360 19.3 40.2 0.00 0.00 0.00 47 1001.1
20260504195011 15 5 19.3 40.2 0.00 0.00 0.00 47 1001.0
20260504194915 15 349 19.3 40.2 0.00 0.00 0.00 46 1001.1
20260504194822 15 340 19.3 40.2 0.00 0.00 0.00 46 1001.0
20260504194725 15 13 22.5 40.2 0.00 0.00 0.00 47 1000.9
20260504194608 15 341 25.7 40.2 0.00 0.00 0.00 46 1000.9
20260504194511 15 331 29.0 40.2 0.00 0.00 0.00 47 1001.0
20260504194417 15 348 25.7 40.2 0.00 0.00 0.00 46 1001.0
20260504194340 15 5 24.1 35.4 0.00 0.00 0.00 48 1000.9
20260504194223 15 355 25.7 35.4 0.00 0.00 0.00 46 1001.1
20260504194129 15 9 27.4 35.4 0.00 0.00 0.00 47 1001.0
20260504194005 15 5 22.5 35.4 0.00 0.00 0.00 47 1001.0
20260504193907 15 360 20.9 32.2 0.00 0.00 0.00 47 1000.9
20260504193812 15 14 17.7 32.2 0.00 0.00 0.00 46 1000.9
20260504193715 15 11 19.3 33.8 0.00 0.00 0.00 46 1001.0
20260504193619 15 351 19.3 33.8 0.00 0.00 0.00 45 1000.9
20260504193540 15 31 14.5 33.8 0.00 0.00 0.00 47 1001.0
20260504193428 15 321 11.3 33.8 0.00 0.00 0.00 47 1000.8
20260504193304 15 336 16.1 40.2 0.00 0.00 0.00 48 1000.7
20260504193207 15 350 17.7 40.2 0.00 0.00 0.00 47 1000.8
20260504193111 15 15 19.3 40.2 0.00 0.00 0.00 47 1000.7
20260504193037 15 37 20.9 40.2 0.00 0.00 0.00 46 1000.9
20260504192919 15 28 22.5 40.2 0.00 0.00 0.00 46 1000.8
20260504192808 15 340 20.9 40.2 0.00 0.00 0.00 48 1000.8
20260504192711 15 347 22.5 40.2 0.00 0.00 0.00 46 1000.7
20260504192617 15 320 20.9 40.2 0.00 0.00 0.00 48 1000.9
20260504192520 15 325 20.9 40.2 0.00 0.00 0.00 47 1000.9
20260504192423 15 5 20.9 35.4 0.00 0.00 0.00 45 1000.6
20260504192308 15 10 19.3 35.4 0.00 0.00 0.00 47 1000.7
20260504192217 15 5 17.7 35.4 0.00 0.00 0.00 49 1000.7
20260504192121 15 13 17.7 35.4 0.00 0.00 0.00 48 1000.6
20260504192006 15 334 20.9 35.4 0.00 0.00 0.00 47 1000.7
20260504191931 15 350 20.9 35.4 0.00 0.00 0.00 48 1000.7
20260504191813 15 345 22.5 35.4 0.00 0.00 0.00 48 1000.7
20260504191718 15 9 20.9 35.4 0.00 0.00 0.00 48 1000.6
20260504191606 15 5 19.3 38.6 0.00 0.00 0.00 48 1000.6
20260504191510 15 40 20.9 38.6 0.00 0.00 0.00 46 1000.6
20260504191415 15 360 20.9 40.2 0.00 0.00 0.00 47 1000.5
20260504191319 15 344 20.9 40.2 0.00 0.00 0.00 48 1000.6
20260504191223 15 28 17.7 40.2 0.00 0.00 0.00 48 1000.6
20260504191128 15 336 16.1 40.2 0.00 0.00 0.00 48 1000.5
20260504191016 15 311 20.9 40.2 0.00 0.00 0.00 49 1000.6
20260504190920 15 9 20.9 40.2 0.00 0.00 0.00 48 1000.5
20260504190822 15 355 22.5 40.2 0.00 0.00 0.00 49 1000.5
20260504190708 15 348 27.4 40.2 0.00 0.00 0.00 48 1000.5
20260504190611 15 360 25.7 40.2 0.00 0.00 0.00 47 1000.5
20260504190515 15 342 20.9 37.0 0.00 0.00 0.00 48 1000.4
20260504190420 15 355 19.3 38.6 0.00 0.00 0.00 47 1000.4
20260504190328 15 15 22.5 38.6 0.00 0.00 0.00 48 1000.4
20260504190205 15 327 20.9 40.2 0.00 0.00 0.00 49 1000.4
20260504190109 15 13 19.3 40.2 0.00 0.00 0.00 52 1000.2
20260504190034 15 351 19.3 40.2 0.00 0.00 0.00 49 1000.2
20260504185918 15 52 22.5 40.2 0.00 0.00 0.00 50 1000.2
20260504185821 15 351 24.1 40.2 0.00 0.00 0.00 49 1000.5
20260504185711 15 360 25.7 40.2 0.00 0.00 0.00 48 1000.3
20260504185615 15 29 27.4 40.2 0.00 0.00 0.00 48 1000.3
20260504185539 15 11 24.1 40.2 0.00 0.00 0.00 48 1000.2
20260504185423 15 319 20.9 40.2 0.00 0.00 0.00 48 1000.1
20260504185309 15 20 17.7 40.2 0.00 0.00 0.00 49 1000.1
20260504185212 15 28 17.7 40.2 0.00 0.00 0.00 49 1000.1
20260504185120 15 360 19.3 41.8 0.00 0.00 0.00 48 1000.3
20260504185024 15 49 20.9 45.1 0.00 0.00 0.00 49 1000.2
20260504184927 15 12 22.5 45.1 0.00 0.00 0.00 49 1000.1
20260504184805 15 11 20.9 45.1 0.00 0.00 0.00 49 1000.1
20260504184708 15 5 19.3 45.1 0.00 0.00 0.00 48 1000.2
20260504184614 16 36 19.3 45.1 0.00 0.00 0.00 49 1000.2
20260504184522 15 5 19.3 45.1 0.00 0.00 0.00 49 1000.2
20260504184406 15 19 24.1 45.1 0.00 0.00 0.00 48 1000.2
20260504184309 15 313 25.7 45.1 0.00 0.00 0.00 47 1000.1
20260504184214 15 329 22.5 45.1 0.00 0.00 0.00 50 999.9
20260504184139 15 29 20.9 32.2 0.00 0.00 0.00 48 1000.0
20260504184023 15 329 20.9 32.2 0.00 0.00 0.00 48 1000.0
20260504183912 15 360 19.3 32.2 0.00 0.00 0.00 47 1000.0
20260504183816 15 9 20.9 32.2 0.00 0.00 0.00 48 999.9
20260504183721 15 351 19.3 32.2 0.00 0.00 0.00 48 1000.0
20260504183645 15 346 19.3 38.6 0.00 0.00 0.00 48 1000.0
20260504183549 15 346 20.9 38.6 0.00 0.00 0.00 50 1000.0
20260504183404 15 5 17.7 43.5 0.00 0.00 0.00 49 999.9
20260504183308 15 355 14.5 43.5 0.00 0.00 0.00 49 1000.0
20260504183215 15 44 17.7 43.5 0.00 0.00 0.00 50 999.9
20260504183140 15 344 16.1 43.5 0.00 0.00 0.00 49 999.9
20260504183004 15 311 20.9 43.5 0.00 0.00 0.00 48 999.8
20260504182908 15 344 25.7 43.5 0.00 0.00 0.00 48 999.9
20260504182811 15 337 29.0 43.5 0.00 0.00 0.00 48 999.9
20260504182715 15 360 22.5 43.5 0.00 0.00 0.00 48 999.9
20260504182619 15 346 19.3 43.5 0.00 0.00 0.00 52 1000.0
20260504182507 15 38 17.7 40.2 0.00 0.00 0.00 50 999.7
20260504182430 15 34 17.7 40.2 0.00 0.00 0.00 49 999.7
20260504182306 15 22 17.7 40.2 0.00 0.00 0.00 49 999.7
20260504182210 15 355 20.9 40.2 0.00 0.00 0.00 48 999.7
20260504182114 15 11 25.7 40.2 0.00 0.00 0.00 47 999.7
20260504182019 16 349 27.4 40.2 0.00 0.00 0.00 48 999.6
20260504181926 16 5 25.7 40.2 0.00 0.00 0.00 48 999.6
20260504181851 16 31 24.1 40.2 0.00 0.00 0.00 48 999.7
20260504181706 16 350 24.1 37.0 0.00 0.00 0.00 49 999.6
20260504181610 16 348 20.9 38.6 0.00 0.00 0.00 48 999.6
20260504181532 16 342 16.1 38.6 0.00 0.00 0.00 50 999.6
20260504181414 15 318 16.1 38.6 0.00 0.00 0.00 51 999.6
20260504181319 15 348 19.3 45.1 0.00 0.00 0.00 49 999.6
20260504181206 15 36 19.3 45.1 0.00 0.00 0.00 47 999.5
20260504181108 15 30 19.3 46.7 0.00 0.00 0.00 47 999.5
20260504181011 15 344 20.9 46.7 0.00 0.00 0.00 49 999.6
20260504180916 16 336 25.7 46.7 0.00 0.00 0.00 47 999.7
20260504180818 16 10 27.4 46.7 0.00 0.00 0.00 47 999.7
20260504180705 16 350 25.7 46.7 0.00 0.00 0.00 48 999.6
20260504180628 16 355 29.0 46.7 0.00 0.00 0.00 48 999.6
20260504180505 16 20 30.6 46.7 0.00 0.00 0.00 47 999.6
20260504180408 16 26 25.7 46.7 0.00 0.00 0.00 46 999.6
20260504180331 16 344 25.7 46.7 0.00 0.00 0.00 48 999.6
20260504180215 16 296 24.1 38.6 0.00 0.00 0.00 46 999.5
20260504180138 16 360 20.9 38.6 0.00 0.00 0.00 47 999.6
20260504180004 16 326 19.3 38.6 0.00 0.00 0.00 47 999.5
20260504175927 16 355 20.9 38.6 0.00 0.00 0.00 47 999.4
20260504175850 16 360 20.9 38.6 0.00 0.00 0.00 45 999.4
20260504175704 16 346 27.4 38.6 0.00 0.00 0.00 43 999.2
20260504175608 16 344 24.1 38.6 0.00 0.00 0.00 44 999.3
20260504175513 16 360 17.7 37.0 0.00 0.00 0.00 46 999.1
20260504175417 16 327 14.5 37.0 0.00 0.00 0.00 45 999.1
20260504175304 16 355 16.1 37.0 0.00 0.00 0.00 44 999.1
20260504175228 16 355 20.9 37.0 0.00 0.00 0.00 44 999.2
20260504175130 16 338 25.7 37.0 0.00 0.00 0.00 43 999.2
20260504175012 16 346 24.1 37.0 0.00 0.00 0.00 44 999.1
20260504174916 16 323 19.3 35.4 0.00 0.00 0.00 45 999.1
20260504174821 16 296 17.7 35.4 0.00 0.00 0.00 45 998.9
20260504174705 16 337 19.3 43.5 0.00 0.00 0.00 43 999.2
20260504174613 16 342 17.7 43.5 0.00 0.00 0.00 45 999.0
20260504174514 16 271 16.1 43.5 0.00 0.00 0.00 45 999.0
20260504174440 16 347 17.7 43.5 0.00 0.00 0.00 45 999.1
20260504174340 16 360 19.3 43.5 0.00 0.00 0.00 45 999.1
20260504174204 16 47 24.1 43.5 0.00 0.00 0.00 42 999.1
20260504174107 16 346 25.7 43.5 0.00 0.00 0.00 42 999.1
20260504174010 16 340 25.7 43.5 0.00 0.00 0.00 43 999.1
20260504173937 16 342 22.5 43.5 0.00 0.00 0.00 45 999.0
20260504173820 16 316 20.9 38.6 0.00 0.00 0.00 44 999.1
20260504173723 16 15 25.7 38.6 0.00 0.00 0.00 44 999.0
20260504173627 16 322 24.1 38.6 0.00 0.00 0.00 44 999.1
20260504173510 16 308 22.5 38.6 0.00 0.00 0.00 44 999.1
20260504173415 16 320 25.7 38.6 0.00 0.00 0.00 44 999.1
20260504173319 16 329 25.7 40.2 0.00 0.00 0.00 43 999.1
20260504173227 16 340 20.9 45.1 0.00 0.00 0.00 42 999.1
20260504173110 16 355 19.3 45.1 0.00 0.00 0.00 43 999.0
20260504173014 16 322 22.5 45.1 0.00 0.00 0.00 44 999.1
20260504172918 16 327 22.5 45.1 0.00 0.00 0.00 44 999.1
20260504172843 16 309 22.5 45.1 0.00 0.00 0.00 43 999.0
20260504172727 16 341 20.9 45.1 0.00 0.00 0.00 44 999.0
20260504172609 16 343 24.1 45.1 0.00 0.00 0.00 44 999.0
20260504172518 16 326 29.0 45.1 0.00 0.00 0.00 44 999.2
20260504172421 16 328 27.4 45.1 0.00 0.00 0.00 43 999.1
20260504172325 16 336 25.7 35.4 0.00 0.00 0.00 42 999.0
20260504172207 16 333 25.7 35.4 0.00 0.00 0.00 43 999.0
20260504172110 16 338 24.1 35.4 0.00 0.00 0.00 44 998.9
20260504172013 16 350 17.7 35.4 0.00 0.00 0.00 44 998.9
20260504171920 16 360 16.1 35.4 0.00 0.00 0.00 47 999.0
20260504171844 16 360 20.9 35.4 0.00 0.00 0.00 47 998.9
20260504171707 16 327 24.1 35.4 0.00 0.00 0.00 48 998.9
20260504171632 16 306 20.9 35.4 0.00 0.00 0.00 48 999.0
20260504171513 16 319 20.9 33.8 0.00 0.00 0.00 48 999.1
20260504171438 16 331 22.5 33.8 0.00 0.00 0.00 50 999.1
20260504171320 15 291 22.5 33.8 0.00 0.00 0.00 49 999.1
20260504171207 15 337 22.5 33.8 0.00 0.00 0.00 46 999.1
20260504171132 15 355 19.3 32.2 0.00 0.00 0.00 47 999.3
20260504171016 15 329 20.9 32.2 0.00 0.00 0.00 48 999.2
20260504170922 15 355 19.3 32.2 0.00 0.00 0.00 49 999.2
20260504170805 15 312 19.3 32.2 0.00 0.00 0.00 50 999.2
20260504170709 15 321 19.3 33.8 0.00 0.00 0.00 49 999.0
20260504170612 15 293 17.7 33.8 0.00 0.00 0.00 48 999.1
20260504170519 15 332 16.1 33.8 0.00 0.00 0.00 50 999.0
20260504170423 15 311 20.9 33.8 0.00 0.00 0.00 50 999.0
20260504170328 15 346 20.9 33.8 0.00 0.00 0.00 49 999.1
20260504170212 15 306 19.3 33.8 0.00 0.00 0.00 48 999.0
20260504170115 15 341 22.5 33.8 0.00 0.00 0.00 49 999.0
20260504160404 16 329 20.9 32.2 0.00 0.00 0.00 48 998.8
20260504160329 16 296 19.3 32.2 0.00 0.00 0.00 46 998.8
20260504160232 16 360 17.7 30.6 0.00 0.00 0.00 48 998.9
20260504160116 16 348 14.5 35.4 0.00 0.00 0.00 47 998.8
20260504151127 15 317 19.3 43.5 0.00 0.00 0.00 47 998.4
20260504151011 15 327 20.9 43.5 0.00 0.00 0.00 47 998.5
20260504150919 15 339 24.1 43.5 0.00 0.00 0.00 47 998.4
20260504150825 15 340 24.1 43.5 0.00 0.00 0.00 46 998.3
20260504150727 15 5 24.1 43.5 0.00 0.00 0.00 48 998.4
20260504150605 15 317 24.1 43.5 0.00 0.00 0.00 47 998.4
20260504150529 15 308 24.1 43.5 0.00 0.00 0.00 48 998.5
20260504150412 15 311 22.5 43.5 0.00 0.00 0.00 47 998.4
20260504150338 15 11 20.9 43.5 0.00 0.00 0.00 48 998.3
20260504150241 15 9 22.5 38.6 0.00 0.00 0.00 46 998.3
20260504150127 15 349 24.1 38.6 0.00 0.00 0.00 48 998.2
20260504141323 15 355 17.7 27.4 0.00 0.00 0.00 51 998.3
20260504141207 15 360 14.5 27.4 0.00 0.00 0.00 51 998.3
20260504141110 15 299 8.0 30.6 0.00 0.00 0.00 51 998.1
20260504141018 15 336 9.7 37.0 0.00 0.00 0.00 51 998.1
20260504140921 15 304 12.9 37.0 0.00 0.00 0.00 51 998.3
20260504140824 15 16 17.7 37.0 0.00 0.00 0.00 50 998.2
20260504140748 15 335 19.3 37.0 0.00 0.00 0.00 49 998.2
20260504140604 15 339 16.1 37.0 0.00 0.00 0.00 51 998.2
20260504140529 14 22 17.7 37.0 0.00 0.00 0.00 51 998.2
20260504140406 14 346 19.3 37.0 0.00 0.00 0.00 49 998.1
20260504140314 14 346 22.5 37.0 0.00 0.00 0.00 49 998.2
20260504140239 14 355 25.7 37.0 0.00 0.00 0.00 48 998.2
20260504140141 14 343 22.5 37.0 0.00 0.00 0.00 49 998.3
20260504130711 15 333 24.1 40.2 0.00 0.00 0.00 53 997.6
20260504130615 15 360 17.7 33.8 0.00 0.00 0.00 54 997.6
20260504130520 15 360 16.1 32.2 0.00 0.00 0.00 54 997.5
20260504130428 15 5 12.9 33.8 0.00 0.00 0.00 55 997.4
20260504130304 15 348 11.3 33.8 0.00 0.00 0.00 55 997.4
20260504130209 15 344 12.9 33.8 0.00 0.00 0.00 55 997.3
20260504130113 15 284 19.3 33.8 0.00 0.00 0.00 55 997.3